FW7316 Weather Reports


time (UTC)temp
F
wind
direction
speed
knots
gust
knots
rain 1hr
in
rain 24hr
in
rain mn
in
humidity
%
barometer
mb
20260507115159 73 44 2.6 7.0 0.00 0.06 0.00 49 1011.8
20260507115100 73 44 1.7 7.0 0.00 0.06 0.00 47 1011.8
20260507115004 73 44 2.6 7.0 0.00 0.06 0.00 47 1011.8
20260507114900 73 20 1.7 7.0 0.00 0.06 0.00 47 1011.8
20260507114800 73 41 3.5 7.0 0.00 0.06 0.00 49 1011.9
20260507114600 73 81 4.3 7.0 0.00 0.06 0.00 49 1011.8
20260507114501 73 77 3.5 7.0 0.00 0.06 0.00 49 1011.8
20260507114159 72 342 0.9 6.1 0.00 0.06 0.00 48 1011.9
20260507114102 73 342 0.9 6.1 0.00 0.06 0.00 48 1011.9
20260507114002 73 342 1.7 6.1 0.00 0.06 0.00 49 1011.9
20260507113900 73 339 2.6 6.1 0.00 0.06 0.00 54 1011.9
20260507113803 73 348 2.6 6.1 0.00 0.06 0.00 47 1011.8
20260507113700 73 47 3.5 6.1 0.00 0.06 0.00 49 1011.9
20260507113600 73 47 2.6 6.1 0.00 0.06 0.00 46 1011.9
20260507113359 73 63 1.7 6.1 0.00 0.06 0.00 53 1011.9
20260507113259 73 62 2.6 6.1 0.00 0.06 0.00 54 1011.9
20260507113202 73 79 5.2 6.1 0.00 0.06 0.00 54 1011.9
20260507113059 72 76 2.6 5.2 0.00 0.06 0.00 50 1011.9
20260507113003 72 117 2.6 5.2 0.00 0.06 0.00 50 1011.9
20260507112902 72 119 1.7 6.1 0.00 0.06 0.00 50 1012.0
20260507112701 72 175 2.6 6.1 0.00 0.06 0.00 50 1012.0
20260507112603 72 178 2.6 6.1 0.00 0.06 0.00 47 1012.0
20260507112459 72 185 0.9 6.1 0.00 0.06 0.00 50 1012.0
20260507112359 72 173 0.9 6.1 0.00 0.06 0.00 55 1012.0
20260507112306 72 173 1.7 7.0 0.00 0.06 0.00 54 1012.1
20260507112200 71 173 0.0 7.0 0.00 0.06 0.00 53 1012.1
20260507112004 71 163 1.7 7.0 0.00 0.06 0.00 52 1012.1
20260507111900 71 188 6.1 7.0 0.00 0.06 0.00 55 1012.1
20260507111800 71 312 0.9 7.0 0.00 0.06 0.00 53 1012.1
20260507111704 71 314 3.5 7.0 0.00 0.06 0.00 50 1012.1
20260507111600 71 250 2.6 7.0 0.00 0.06 0.00 53 1012.1
20260507111500 71 294 2.6 7.0 0.00 0.06 0.00 54 1012.1
20260507111406 71 329 2.6 7.0 0.00 0.06 0.00 54 1012.1
20260507111300 71 286 5.2 7.0 0.00 0.06 0.00 54 1012.1
20260507111159 71 261 5.2 5.2 0.00 0.06 0.00 54 1012.1
20260507111105 71 248 2.6 5.2 0.00 0.06 0.00 53 1012.1
20260507111032 71 267 1.7 5.2 0.00 0.06 0.00 53 1012.1
20260507110900 71 267 0.9 5.2 0.00 0.06 0.00 53 1012.1
20260507110804 71 267 0.9 7.0 0.00 0.06 0.00 52 1012.1
20260507110700 71 267 1.7 7.0 0.00 0.06 0.00 54 1012.1
20260507110600 71 282 0.9 7.0 0.00 0.06 0.00 55 1012.1
20260507110504 71 290 3.5 7.0 0.00 0.06 0.00 54 1012.1
20260507110359 70 230 4.3 7.0 0.00 0.06 0.00 54 1012.2
20260507110202 70 244 3.5 7.0 0.00 0.06 0.00 54 1012.2
20260507110100 70 239 4.3 7.0 0.00 0.06 0.00 56 1012.2
20260507110020 70 227 3.5 7.0 0.00 0.06 0.00 54 1012.2
20260507105903 70 227 2.6 7.0 0.00 0.06 0.00 54 1012.2
20260507105802 70 200 3.5 5.2 0.00 0.06 0.00 52 1012.2
20260507105701 70 233 2.6 7.8 0.00 0.06 0.00 51 1012.2
20260507105609 71 225 4.3 7.8 0.00 0.06 0.00 53 1012.2
20260507105500 71 235 3.5 8.7 0.00 0.06 0.00 53 1012.3
20260507105359 71 216 1.7 8.7 0.00 0.06 0.00 53 1012.3
20260507105159 71 217 2.6 8.7 0.00 0.06 0.00 54 1012.3
20260507105059 71 258 3.5 8.7 0.00 0.06 0.00 55 1012.2
20260507105043 71 274 3.5 8.7 0.00 0.06 0.00 55 1012.2
20260507104910 71 240 1.7 8.7 0.00 0.06 0.00 53 1012.3
20260507104801 71 238 5.2 8.7 0.00 0.06 0.00 58 1012.3
20260507104703 71 271 3.5 8.7 0.00 0.06 0.00 57 1012.3
20260507104501 71 252 4.3 7.8 0.00 0.06 0.00 58 1012.2
20260507104404 71 278 3.5 7.0 0.00 0.06 0.00 56 1012.2
20260507104300 71 236 1.7 7.0 0.00 0.06 0.00 55 1012.2
20260507104200 71 165 1.7 7.0 0.00 0.06 0.00 55 1012.3
20260507104104 71 203 0.9 7.0 0.00 0.06 0.00 52 1012.3
20260507104001 71 186 5.2 7.0 0.00 0.06 0.00 52 1012.3
20260507103900 71 205 3.5 7.8 0.00 0.06 0.00 53 1012.3
20260507103803 71 214 4.3 8.7 0.00 0.06 0.00 53 1012.3
20260507103701 71 244 3.5 8.7 0.00 0.06 0.00 53 1012.4
20260507103601 71 328 2.6 8.7 0.00 0.06 0.00 54 1012.4
20260507103503 71 293 0.9 8.7 0.00 0.06 0.00 54 1012.4
20260507103400 71 248 0.0 8.7 0.00 0.06 0.00 57 1012.4
20260507103300 71 335 1.7 8.7 0.00 0.06 0.00 56 1012.4
20260507103100 71 273 2.6 8.7 0.00 0.06 0.00 59 1012.4
20260507103001 71 267 3.5 8.7 0.00 0.06 0.00 55 1012.4
20260507102903 71 273 5.2 8.7 0.00 0.06 0.00 55 1012.4
20260507102800 70 257 4.3 8.7 0.00 0.06 0.00 56 1012.4
20260507102701 70 210 2.6 8.7 0.00 0.06 0.00 51 1012.3
20260507102459 70 186 2.6 8.7 0.00 0.06 0.00 52 1012.3
20260507102307 71 222 6.1 8.7 0.00 0.06 0.00 53 1012.3
20260507102200 70 229 3.5 7.8 0.00 0.06 0.00 52 1012.4
20260507102100 71 303 5.2 7.8 0.00 0.06 0.00 56 1012.5
20260507102007 71 286 6.1 7.8 0.00 0.06 0.00 53 1012.5
20260507101901 71 273 4.3 9.6 0.00 0.06 0.00 53 1012.4
20260507101808 71 304 4.3 10.4 0.00 0.06 0.00 54 1012.4
20260507101703 71 246 4.3 10.4 0.00 0.06 0.00 54 1012.4
20260507101600 70 213 3.5 10.4 0.00 0.06 0.00 53 1012.4
20260507101500 70 180 2.6 10.4 0.00 0.06 0.00 54 1012.4
20260507101402 70 222 1.7 10.4 0.00 0.06 0.00 51 1012.4
20260507101201 70 236 7.0 10.4 0.00 0.06 0.00 54 1012.4
20260507101101 70 193 5.2 10.4 0.00 0.06 0.00 52 1012.4
20260507100901 70 180 7.8 10.4 0.00 0.06 0.00 55 1012.4
20260507100803 70 176 4.3 7.0 0.00 0.06 0.00 52 1012.4
20260507100700 70 171 6.1 7.8 0.00 0.06 0.00 54 1012.4
20260507100600 70 174 3.5 7.8 0.00 0.06 0.00 54 1012.4
20260507100401 70 179 2.6 10.4 0.00 0.06 0.00 51 1012.4
20260507100301 70 166 2.6 10.4 0.00 0.06 0.00 56 1012.4
20260507100203 70 166 4.3 10.4 0.00 0.06 0.00 52 1012.5
20260507100124 70 200 4.3 10.4 0.00 0.06 0.00 51 1012.5
20260507100006 70 207 2.6 10.4 0.00 0.06 0.00 51 1012.5
20260507095900 70 314 1.7 10.4 0.00 0.06 0.00 49 1012.5
20260507095803 70 217 1.7 10.4 0.00 0.06 0.00 52 1012.5
20260507095700 70 215 6.1 10.4 0.00 0.06 0.00 55 1012.5
20260507095600 70 211 6.1 10.4 0.00 0.06 0.00 55 1012.5
20260507095503 70 225 7.8 10.4 0.00 0.06 0.00 55 1012.5
20260507095400 70 213 7.8 9.6 0.00 0.06 0.00 54 1012.5
20260507095301 70 208 4.3 9.6 0.00 0.06 0.00 55 1012.5
20260507095204 70 165 1.7 9.6 0.00 0.06 0.00 57 1012.5
20260507095100 70 161 2.6 9.6 0.00 0.06 0.00 55 1012.6
20260507094759 70 211 7.8 9.6 0.00 0.06 0.00 57 1012.5
20260507094700 70 215 6.1 8.7 0.00 0.06 0.00 57 1012.5
20260507094604 70 186 3.5 8.7 0.00 0.06 0.00 58 1012.5
20260507094501 70 164 2.6 8.7 0.00 0.06 0.00 56 1012.5
20260507094400 70 159 5.2 10.4 0.00 0.06 0.00 55 1012.5
20260507094304 70 201 5.2 10.4 0.00 0.06 0.00 57 1012.5
20260507094201 69 198 6.1 11.3 0.00 0.06 0.00 55 1012.4
20260507094059 69 188 2.6 11.3 0.00 0.06 0.00 56 1012.5
20260507093800 69 184 5.2 13.9 0.00 0.06 0.00 57 1012.5
20260507093707 69 265 2.6 14.8 0.00 0.06 0.00 55 1012.5
20260507093601 69 199 7.8 14.8 0.00 0.06 0.00 56 1012.5
20260507093501 69 209 4.3 16.5 0.00 0.06 0.00 54 1012.5
20260507093405 69 212 10.4 16.5 0.00 0.06 0.00 55 1012.5
20260507093302 69 178 10.4 16.5 0.00 0.06 0.00 55 1012.5
20260507093201 69 186 7.0 16.5 0.00 0.06 0.00 55 1012.5
20260507093107 69 182 8.7 16.5 0.00 0.06 0.00 57 1012.5
20260507092959 69 186 6.1 16.5 0.00 0.06 0.00 57 1012.5
20260507092900 69 183 10.4 16.5 0.00 0.06 0.00 58 1012.6
20260507092803 69 180 12.2 16.5 0.00 0.06 0.00 57 1012.5
20260507092700 69 196 8.7 16.5 0.00 0.06 0.00 54 1012.5
20260507092601 69 196 7.8 16.5 0.00 0.06 0.00 58 1012.5
20260507092503 69 186 15.6 16.5 0.00 0.06 0.00 59 1012.5
20260507092401 69 185 7.0 12.2 0.00 0.06 0.00 59 1012.5
20260507092300 69 173 4.3 12.2 0.00 0.06 0.00 57 1012.5
20260507092203 69 288 0.9 12.2 0.00 0.06 0.00 54 1012.5
20260507092100 69 282 3.5 12.2 0.00 0.06 0.00 56 1012.5
20260507092001 69 290 3.5 12.2 0.00 0.06 0.00 54 1012.6
20260507091902 69 250 7.8 12.2 0.00 0.06 0.00 58 1012.6
20260507091800 69 277 4.3 12.2 0.00 0.06 0.00 58 1012.6
20260507091500 69 231 8.7 12.2 0.00 0.06 0.00 59 1012.6
20260507091400 69 242 6.1 9.6 0.00 0.06 0.00 60 1012.5
20260507091302 69 219 7.8 13.0 0.00 0.06 0.00 56 1012.5
20260507091200 69 205 6.1 14.8 0.00 0.06 0.00 57 1012.5
20260507091100 69 173 6.1 14.8 0.00 0.06 0.00 55 1012.5
20260507091007 69 203 7.0 14.8 0.00 0.06 0.00 58 1012.5
20260507090901 69 219 10.4 14.8 0.00 0.06 0.00 56 1012.5
20260507090802 69 196 7.8 14.8 0.00 0.06 0.00 58 1012.5
20260507090702 69 186 6.1 14.8 0.00 0.06 0.00 57 1012.5
20260507090600 69 188 7.0 14.8 0.00 0.06 0.00 58 1012.5
20260507090500 69 222 9.6 14.8 0.00 0.06 0.00 55 1012.5
20260507090403 69 262 6.1 14.8 0.00 0.06 0.00 58 1012.5
20260507090301 69 223 11.3 14.8 0.00 0.06 0.00 56 1012.6
20260507090201 69 190 4.3 10.4 0.00 0.06 0.00 61 1012.5
20260507090105 69 246 4.3 10.4 0.00 0.06 0.00 60 1012.5
20260507090007 69 235 2.6 10.4 0.00 0.06 0.00 56 1012.5
20260507085900 69 237 6.1 10.4 0.00 0.06 0.00 62 1012.6
20260507085719 69 261 7.8 10.4 0.00 0.06 0.00 56 1012.5
20260507085400 69 218 4.3 10.4 0.00 0.06 0.00 57 1012.5
20260507085300 68 170 4.3 10.4 0.00 0.06 0.00 57 1012.5
20260507085203 68 196 6.1 10.4 0.00 0.06 0.00 57 1012.5
20260507085100 68 199 6.1 10.4 0.00 0.06 0.00 56 1012.5
20260507085001 68 198 4.3 10.4 0.00 0.06 0.00 55 1012.5
20260507084800 68 186 6.1 8.7 0.00 0.06 0.00 60 1012.5
20260507084700 68 175 4.3 8.7 0.00 0.06 0.00 59 1012.6
20260507084602 68 228 7.0 7.0 0.00 0.06 0.00 59 1012.5
20260507084303 68 221 1.7 6.1 0.00 0.06 0.00 60 1012.5
20260507084200 68 302 1.7 6.1 0.00 0.06 0.00 60 1012.4
20260507084004 68 259 1.7 7.0 0.00 0.06 0.00 61 1012.4
20260507083900 68 241 1.7 7.0 0.00 0.06 0.00 59 1012.4
20260507083800 68 275 4.3 7.0 0.00 0.06 0.00 61 1012.3
20260507083703 68 207 3.5 7.0 0.00 0.06 0.00 58 1012.3
20260507083600 68 248 1.7 7.0 0.00 0.06 0.00 58 1012.3
20260507083500 68 312 2.6 7.0 0.00 0.06 0.00 60 1012.3
20260507083300 68 182 4.3 7.0 0.00 0.06 0.00 58 1012.3
20260507083105 68 240 4.3 6.1 0.00 0.06 0.00 62 1012.3
20260507082913 67 161 0.9 6.1 0.00 0.06 0.00 56 1012.3
20260507082812 67 292 3.5 6.1 0.00 0.06 0.00 57 1012.3
20260507082603 67 263 1.7 6.1 0.00 0.06 0.00 57 1012.3
20260507082400 67 288 2.6 6.1 0.00 0.06 0.00 59 1012.2
20260507082306 67 198 5.2 6.1 0.00 0.06 0.00 57 1012.2
20260507082100 67 277 1.7 5.2 0.00 0.06 0.00 56 1012.3
20260507082007 67 209 2.6 5.2 0.00 0.06 0.00 55 1012.3
20260507081901 67 210 2.6 5.2 0.00 0.06 0.00 58 1012.2
20260507081800 67 225 0.9 6.1 0.00 0.06 0.00 58 1012.2
20260507081707 67 275 1.7 7.0 0.00 0.06 0.00 60 1012.2
20260507081601 67 275 0.9 7.0 0.00 0.06 0.00 58 1012.3
20260507081500 67 197 3.5 7.0 0.00 0.06 0.00 57 1012.3
20260507081402 67 234 1.7 7.8 0.00 0.06 0.00 55 1012.2
20260507081302 67 248 4.3 7.8 0.00 0.06 0.00 56 1012.2
20260507081200 67 265 1.7 7.8 0.00 0.06 0.00 55 1012.2
20260507081004 67 251 4.3 7.8 0.00 0.06 0.00 56 1012.2
20260507080900 67 271 3.5 7.8 0.00 0.06 0.00 55 1012.2
20260507080802 67 258 3.5 10.4 0.00 0.06 0.00 58 1012.2
20260507080705 67 234 3.5 10.4 0.00 0.06 0.00 59 1012.2
20260507080559 67 211 4.3 10.4 0.00 0.06 0.00 59 1012.2
20260507080504 67 250 3.5 10.4 0.00 0.06 0.00 59 1012.2
20260507080401 67 244 4.3 10.4 0.00 0.06 0.00 60 1012.2
20260507080300 67 255 4.3 10.4 0.00 0.06 0.00 61 1012.2
20260507080203 67 209 5.2 10.4 0.00 0.06 0.00 60 1012.2
20260507080116 67 242 6.1 10.4 0.00 0.06 0.00 59 1012.2
20260507080007 67 238 3.5 10.4 0.00 0.06 0.00 59 1012.3
20260507075902 67 220 6.1 10.4 0.00 0.06 0.00 59 1012.2
20260507075702 67 220 7.0 7.0 0.00 0.06 0.00 61 1012.2
20260507075620 67 219 5.2 7.0 0.00 0.06 0.00 61 1012.2
20260507075500 67 225 3.5 7.0 0.00 0.06 0.00 58 1012.2
20260507075306 67 267 5.2 7.0 0.00 0.06 0.00 60 1012.1
20260507075159 66 224 2.6 6.1 0.00 0.06 0.00 61 1012.2
20260507075101 66 279 2.6 7.0 0.00 0.06 0.00 58 1012.2
20260507075005 66 210 4.3 7.0 0.00 0.06 0.00 58 1012.2
20260507074801 66 290 4.3 7.0 0.00 0.06 0.00 58 1012.1
20260507074702 66 268 1.7 7.0 0.00 0.06 0.00 57 1012.2
20260507074600 66 266 1.7 7.0 0.00 0.06 0.00 57 1012.2
20260507074502 66 292 4.3 7.0 0.00 0.06 0.00 56 1012.2
20260507074403 66 268 3.5 7.0 0.00 0.06 0.00 57 1012.1
20260507074301 66 222 3.5 7.0 0.00 0.06 0.00 55 1012.2
20260507074202 66 220 4.3 7.0 0.00 0.06 0.00 54 1012.2
20260507074102 66 234 6.1 7.0 0.00 0.06 0.00 57 1012.2
20260507074000 66 252 2.6 6.1 0.00 0.06 0.00 56 1012.1
20260507073902 66 216 5.2 7.0 0.00 0.06 0.00 57 1012.2
20260507073803 66 259 3.5 7.0 0.00 0.06 0.00 57 1012.2
20260507073700 66 244 5.2 7.0 0.00 0.06 0.00 58 1012.2
20260507073503 66 271 1.7 7.0 0.00 0.06 0.00 58 1012.2
20260507073400 66 215 3.5 7.0 0.00 0.06 0.00 60 1012.2
20260507073303 66 273 3.5 7.0 0.00 0.06 0.00 60 1012.1
20260507073202 66 228 2.6 7.0 0.00 0.06 0.00 61 1012.1
20260507073100 65 284 5.2 7.0 0.00 0.06 0.00 61 1012.1
20260507073000 65 265 2.6 7.0 0.00 0.06 0.00 59 1012.1
20260507072904 65 265 6.1 7.8 0.00 0.06 0.00 59 1012.1
20260507072800 66 252 5.2 7.8 0.00 0.06 0.00 58 1012.1
20260507072702 66 270 3.5 7.8 0.00 0.06 0.00 60 1012.2
20260507072620 65 278 3.5 7.8 0.00 0.06 0.00 60 1012.2
20260507072501 65 207 2.6 7.8 0.00 0.06 0.00 59 1012.2
20260507072400 65 202 4.3 7.8 0.00 0.06 0.00 60 1012.2
20260507072201 65 234 4.3 7.8 0.00 0.06 0.00 60 1012.3
20260507072100 65 219 7.0 7.8 0.00 0.06 0.00 60 1012.3
20260507072005 65 213 4.3 7.8 0.00 0.06 0.00 62 1012.3
20260507071900 65 224 6.1 7.0 0.00 0.06 0.00 63 1012.3
20260507071801 65 232 1.7 6.1 0.00 0.06 0.00 63 1012.3
20260507071707 65 263 4.3 6.1 0.00 0.06 0.00 62 1012.3
20260507071610 65 260 2.6 6.1 0.00 0.06 0.00 64 1012.2
20260507071506 65 215 2.6 6.1 0.00 0.06 0.00 62 1012.2
20260507071402 65 215 2.6 6.1 0.00 0.06 0.00 60 1012.2
20260507071300 65 215 2.6 6.1 0.00 0.06 0.00 60 1012.3
20260507071202 65 227 4.3 6.1 0.00 0.06 0.00 60 1012.2
20260507071001 65 221 4.3 7.0 0.00 0.06 0.00 61 1012.3
20260507070901 65 217 2.6 7.0 0.00 0.06 0.00 63 1012.2
20260507070703 65 214 1.7 7.0 0.00 0.06 0.00 64 1012.2
20260507070600 65 221 3.5 7.0 0.00 0.06 0.00 62 1012.2
20260507070503 64 221 3.5 7.0 0.00 0.06 0.00 62 1012.2
20260507070400 64 214 4.3 7.0 0.00 0.06 0.00 63 1012.2
20260507070300 64 199 4.3 7.0 0.00 0.06 0.00 62 1012.2
20260507070204 64 224 6.1 7.0 0.00 0.06 0.00 63 1012.2
20260507070100 64 232 4.3 7.0 0.00 0.06 0.00 62 1012.2
20260507065905 64 221 5.2 7.0 0.00 0.06 0.00 64 1012.1
20260507065700 64 236 5.2 7.0 0.00 0.06 0.00 66 1012.1
20260507065605 64 259 2.6 7.0 0.00 0.06 0.00 64 1012.1
20260507065400 64 257 2.6 7.0 0.00 0.06 0.00 65 1012.1
20260507065306 64 246 3.5 7.0 0.00 0.06 0.00 63 1012.1
20260507065200 64 209 3.5 7.0 0.00 0.06 0.00 65 1012.1
20260507065059 64 223 5.2 7.0 0.00 0.06 0.00 65 1012.1
20260507065004 63 224 5.2 7.0 0.00 0.06 0.00 64 1012.1
20260507064900 63 211 6.1 7.8 0.00 0.06 0.00 66 1012.1
20260507064802 63 226 4.3 7.8 0.00 0.06 0.00 65 1012.1
20260507064702 63 262 2.6 7.8 0.00 0.06 0.00 64 1012.1
20260507064500 63 232 6.1 7.8 0.00 0.06 0.00 67 1012.1
20260507064259 63 211 5.2 7.8 0.00 0.06 0.00 66 1012.1
20260507064200 63 226 5.2 7.8 0.00 0.06 0.00 66 1012.1
20260507064103 63 218 4.3 7.8 0.00 0.06 0.00 66 1012.0
20260507064000 63 239 6.1 7.8 0.00 0.06 0.00 67 1012.0
20260507063859 63 232 4.3 7.8 0.00 0.06 0.00 67 1012.0
20260507063802 63 220 6.1 7.8 0.00 0.06 0.00 66 1012.0
20260507063600 62 257 4.3 7.8 0.00 0.06 0.00 67 1012.0
20260507063504 62 264 5.2 7.8 0.00 0.06 0.00 67 1012.0
20260507063300 62 234 2.6 7.8 0.00 0.06 0.00 67 1011.9
20260507063100 62 254 3.5 7.8 0.00 0.06 0.00 67 1011.9
20260507063000 62 226 5.2 7.8 0.00 0.06 0.00 68 1011.9
20260507062903 62 227 6.1 7.0 0.00 0.06 0.00 67 1011.9
20260507062800 62 268 4.3 7.0 0.00 0.06 0.00 68 1011.9
20260507062703 62 260 3.5 7.0 0.00 0.06 0.00 69 1011.9
20260507062602 62 257 4.3 7.0 0.00 0.06 0.00 70 1011.9
20260507062500 62 265 4.3 7.0 0.00 0.06 0.00 71 1011.9
20260507062400 62 244 5.2 5.2 0.00 0.06 0.00 71 1011.9
20260507062305 61 240 2.6 4.3 0.00 0.06 0.00 70 1011.9
20260507062200 61 262 2.6 4.3 0.00 0.06 0.00 70 1011.9
20260507062059 61 269 3.5 4.3 0.00 0.06 0.00 72 1011.9
20260507061900 61 223 2.6 5.2 0.00 0.06 0.00 70 1011.9
20260507061800 61 246 2.6 5.2 0.00 0.06 0.00 71 1011.9
20260507061703 61 262 3.5 5.2 0.00 0.06 0.00 73 1011.9
20260507061500 61 258 1.7 5.2 0.00 0.06 0.00 71 1011.8
20260507061402 61 258 0.9 5.2 0.00 0.06 0.00 71 1011.8
20260507061301 60 257 2.6 5.2 0.00 0.06 0.00 71 1011.8
20260507061200 60 260 3.5 5.2 0.00 0.06 0.00 72 1011.8
20260507061103 60 272 2.6 5.2 0.00 0.06 0.00 72 1011.8
20260507061000 60 263 3.5 5.2 0.00 0.06 0.00 72 1011.8
20260507060802 60 276 1.7 6.1 0.00 0.06 0.00 73 1011.8
20260507060700 60 245 4.3 6.1 0.00 0.06 0.00 73 1011.8
20260507060601 60 256 2.6 6.1 0.00 0.06 0.00 73 1011.8
20260507060502 60 260 3.5 6.1 0.00 0.06 0.00 74 1011.8
20260507060300 59 252 2.6 6.1 0.00 0.06 0.00 74 1011.8
20260507060119 59 274 5.2 6.1 0.00 0.06 0.00 75 1011.8
20260507060007 59 281 3.5 6.1 0.00 0.06 0.00 75 1011.8
20260507055903 59 296 4.3 5.2 0.00 0.08 0.00 76 1011.8
20260507055602 58 296 1.7 5.2 0.00 0.08 0.00 76 1011.8
20260507055502 58 300 5.2 5.2 0.00 0.08 0.00 76 1011.9
20260507055359 58 277 2.6 4.3 0.00 0.08 0.00 77 1011.8
20260507055305 58 289 1.7 4.3 0.00 0.08 0.00 76 1011.9
20260507055201 58 311 3.5 4.3 0.00 0.08 0.00 77 1011.8
20260507055100 58 311 3.5 4.3 0.00 0.08 0.00 77 1011.8
20260507055005 57 288 3.5 4.3 0.00 0.08 0.00 77 1011.8
20260507054759 57 298 2.6 3.5 0.00 0.08 0.00 79 1011.8
20260507054602 57 306 2.6 3.5 0.00 0.08 0.00 80 1011.8
20260507054500 57 306 0.9 3.5 0.00 0.08 0.00 80 1011.8
20260507054403 57 306 3.5 3.5 0.00 0.08 0.00 80 1011.8
20260507054302 57 319 3.5 3.5 0.00 0.08 0.00 80 1011.7
20260507054201 56 319 3.5 3.5 0.00 0.08 0.00 81 1011.8
20260507054104 56 319 2.6 3.5 0.00 0.08 0.00 81 1011.8
20260507054005 56 326 3.5 3.5 0.00 0.08 0.00 81 1011.8
20260507053802 56 320 1.7 3.5 0.00 0.08 0.00 81 1011.8
20260507053702 56 158 2.6 3.5 0.00 0.08 0.00 81 1011.7
20260507053600 56 158 1.7 3.5 0.00 0.08 0.00 81 1011.8
20260507053502 56 158 2.6 2.6 0.00 0.08 0.00 81 1011.7
20260507053402 56 158 1.7 2.6 0.00 0.08 0.00 81 1011.8
20260507053300 56 158 2.6 2.6 0.00 0.08 0.00 81 1011.7
20260507053203 56 158 1.7 3.5 0.00 0.08 0.00 81 1011.7
20260507053102 56 158 1.7 3.5 0.00 0.08 0.00 81 1011.7
20260507052801 55 158 1.7 3.5 0.00 0.08 0.00 81 1011.7
20260507052703 55 158 0.9 3.5 0.00 0.08 0.00 81 1011.7
20260507052604 55 158 1.7 3.5 0.00 0.08 0.00 82 1011.7
20260507052500 55 158 2.6 3.5 0.00 0.08 0.00 82 1011.7
20260507052413 55 158 2.6 3.5 0.00 0.08 0.00 82 1011.7
20260507052305 55 158 1.7 3.5 0.00 0.08 0.00 83 1011.7
20260507052159 55 158 2.6 3.5 0.00 0.08 0.00 83 1011.7
20260507052102 54 158 2.6 2.6 0.00 0.08 0.00 82 1011.7
20260507052006 54 158 0.9 2.6 0.00 0.08 0.00 83 1011.7
20260507051900 54 158 0.9 2.6 0.00 0.08 0.00 82 1011.7
20260507051803 54 158 1.7 2.6 0.00 0.08 0.00 82 1011.7
20260507051703 54 211 1.7 2.6 0.00 0.08 0.00 83 1011.6
20260507051600 54 211 0.0 3.5 0.00 0.08 0.00 83 1011.6
20260507051505 54 211 0.0 3.5 0.00 0.08 0.00 83 1011.6
20260507051403 54 211 0.0 3.5 0.00 0.08 0.00 83 1011.6
20260507051300 54 211 1.7 3.5 0.00 0.08 0.00 83 1011.6
20260507051201 54 211 0.9 4.3 0.00 0.08 0.00 83 1011.6
20260507051002 54 211 0.9 5.2 0.00 0.08 0.00 83 1011.6
20260507050902 54 211 0.9 5.2 0.00 0.08 0.00 83 1011.5
20260507050802 54 211 0.0 5.2 0.00 0.08 0.00 83 1011.6
20260507050700 53 211 1.7 5.2 0.00 0.08 0.00 83 1011.5
20260507050503 53 211 1.7 6.1 0.00 0.08 0.00 84 1011.5
20260507050401 53 208 0.9 6.1 0.00 0.08 0.00 84 1011.4
20260507050302 53 208 1.7 7.0 0.00 0.08 0.00 84 1011.4
20260507050006 53 209 5.2 7.0 0.00 0.08 0.00 84 1011.4
20260507045903 53 202 3.5 7.0 0.00 0.14 0.00 84 1011.3
20260507045800 53 205 4.3 7.0 0.00 0.14 0.00 85 1011.4
20260507045702 53 209 5.2 7.0 0.00 0.14 0.00 85 1011.3
20260507045604 53 197 4.3 7.0 0.00 0.14 0.00 85 1011.3
20260507045459 52 190 5.2 7.0 0.00 0.14 0.00 85 1011.3
20260507045359 52 189 6.1 7.0 0.00 0.14 0.00 85 1011.3
20260507045331 52 186 6.1 6.1 0.00 0.14 0.00 85 1011.3
20260507045159 52 205 4.3 6.1 0.00 0.14 0.00 85 1011.3
20260507045059 52 208 5.2 6.1 0.00 0.14 0.00 86 1011.3
20260507044900 52 207 4.3 6.1 0.00 0.14 0.00 86 1011.3
20260507044800 52 214 4.3 6.1 0.00 0.14 0.00 86 1011.3
20260507044559 51 209 5.2 6.1 0.00 0.14 0.00 86 1011.2
20260507044500 51 213 3.5 6.1 0.00 0.14 0.00 86 1011.3
20260507044402 51 215 5.2 6.1 0.00 0.14 0.00 85 1011.3
20260507044259 51 214 3.5 5.2 0.00 0.14 0.00 85 1011.3
20260507044102 51 213 3.5 5.2 0.00 0.14 0.00 85 1011.3
20260507044001 51 223 4.3 5.2 0.00 0.14 0.00 85 1011.3
20260507043900 51 227 3.5 5.2 0.00 0.14 0.00 85 1011.3
20260507043803 51 211 4.3 5.2 0.00 0.14 0.00 85 1011.3
20260507043700 51 207 4.3 5.2 0.00 0.14 0.00 85 1011.3
20260507043600 51 201 4.3 4.3 0.00 0.14 0.00 85 1011.2
20260507043503 51 199 3.5 4.3 0.00 0.14 0.00 85 1011.2
20260507043400 51 196 2.6 4.3 0.00 0.14 0.00 85 1011.2
20260507043259 51 196 3.5 4.3 0.00 0.14 0.00 85 1011.2
20260507043203 51 198 3.5 4.3 0.00 0.14 0.00 84 1011.2
20260507043111 51 208 3.5 4.3 0.00 0.14 0.00 84 1011.2
20260507043000 51 229 3.5 3.5 0.00 0.14 0.00 84 1011.2
20260507042905 51 200 2.6 3.5 0.00 0.14 0.00 84 1011.2
20260507042800 51 196 2.6 4.3 0.00 0.14 0.00 84 1011.2
20260507042713 51 196 1.7 4.3 0.00 0.14 0.00 84 1011.2
20260507042606 51 196 1.7 4.3 0.00 0.14 0.00 84 1011.2
20260507042500 51 196 2.6 4.3 0.00 0.14 0.00 84 1011.1
20260507042402 51 206 3.5 4.3 0.00 0.14 0.00 84 1011.2
20260507042307 51 200 2.6 4.3 0.00 0.14 0.00 84 1011.2
20260507042159 51 200 2.6 4.3 0.00 0.14 0.00 84 1011.1
20260507042102 51 200 0.9 4.3 0.00 0.14 0.00 84 1011.1
20260507042023 51 200 0.9 4.3 0.00 0.14 0.00 84 1011.1
20260507041901 51 200 3.5 4.3 0.00 0.14 0.00 84 1011.1
20260507041705 52 200 2.6 3.5 0.00 0.14 0.00 83 1011.1
20260507041600 52 200 2.6 3.5 0.00 0.14 0.00 83 1011.0
20260507041502 52 200 2.6 3.5 0.00 0.14 0.00 83 1011.1
20260507041403 52 184 1.7 3.5 0.00 0.14 0.00 83 1011.1
20260507041301 52 184 2.6 3.5 0.00 0.14 0.00 83 1011.1
20260507041201 52 184 2.6 3.5 0.00 0.14 0.00 83 1011.0
20260507041102 52 184 2.6 3.5 0.00 0.14 0.00 83 1011.0
20260507041000 52 184 2.6 3.5 0.00 0.14 0.00 83 1011.1
20260507040902 52 184 1.7 3.5 0.00 0.14 0.00 83 1011.0
20260507040802 52 184 1.7 4.3 0.00 0.14 0.00 83 1011.0
20260507040700 52 184 0.9 4.3 0.00 0.14 0.00 83 1011.1
20260507040605 52 184 0.9 4.3 0.00 0.14 0.00 83 1011.1
20260507040400 52 205 1.7 4.3 0.00 0.14 0.00 83 1011.0
20260507040301 52 205 0.9 4.3 0.00 0.14 0.00 83 1011.0
20260507040202 52 205 1.7 4.3 0.00 0.14 0.00 83 1011.0
20260507040117 52 192 2.6 4.3 0.00 0.14 0.00 82 1011.0
20260507040007 52 221 1.7 4.3 0.00 0.14 0.00 82 1010.9
20260507035759 52 232 1.7 3.5 0.00 0.35 0.00 82 1010.9
20260507035702 52 225 0.9 3.5 0.00 0.35 0.00 82 1011.0
20260507035500 52 245 1.7 2.6 0.00 0.35 0.00 82 1010.9
20260507035402 53 332 1.7 3.5 0.00 0.35 0.00 81 1010.9
20260507035200 53 332 0.0 5.2 0.00 0.35 0.00 81 1010.9
20260507035004 53 186 0.9 5.2 0.00 0.35 0.00 81 1010.9
20260507034859 53 186 0.0 5.2 0.00 0.35 0.00 81 1010.8
20260507034801 53 186 1.7 5.2 0.00 0.35 0.00 81 1010.8
20260507034702 53 186 0.9 5.2 0.00 0.35 0.00 80 1010.8
20260507034602 53 186 0.9 5.2 0.00 0.35 0.00 80 1010.7
20260507034502 53 186 2.6 5.2 0.00 0.35 0.00 79 1010.7
20260507034404 54 346 1.7 5.2 0.00 0.35 0.00 79 1010.6
20260507034300 54 344 4.3 5.2 0.00 0.35 0.00 78 1010.6
20260507034201 54 332 4.3 5.2 0.00 0.35 0.00 78 1010.7
20260507034107 54 344 3.5 5.2 0.00 0.35 0.00 78 1010.7
20260507034007 54 344 2.6 5.2 0.00 0.35 0.00 78 1010.6
20260507033901 54 345 3.5 5.2 0.00 0.35 0.00 77 1010.6
20260507033803 55 345 2.6 5.2 0.00 0.35 0.00 77 1010.6
20260507033700 55 325 2.6 5.2 0.00 0.35 0.00 77 1010.6
20260507033602 55 335 3.5 6.1 0.00 0.35 0.00 77 1010.6
20260507033401 55 319 4.3 6.1 0.00 0.35 0.00 77 1010.6
20260507033302 55 342 1.7 6.1 0.00 0.35 0.00 77 1010.6
20260507033204 55 332 2.6 6.1 0.00 0.35 0.00 77 1010.6
20260507033059 55 309 1.7 6.1 0.00 0.35 0.00 76 1010.6
20260507033002 55 309 2.6 6.1 0.00 0.35 0.00 76 1010.6
20260507032902 55 237 1.7 6.1 0.00 0.35 0.00 75 1010.6
20260507032801 55 237 1.7 6.1 0.00 0.35 0.00 75 1010.5
20260507032703 55 211 5.2 6.1 0.00 0.35 0.00 76 1010.5
20260507032501 55 242 1.7 6.1 0.00 0.35 0.00 76 1010.5
20260507032403 55 242 2.6 6.1 0.00 0.35 0.00 76 1010.5
20260507032305 55 225 3.5 6.1 0.00 0.35 0.00 76 1010.6
20260507032004 56 245 2.6 6.1 0.00 0.35 0.00 76 1010.6
20260507031901 56 242 2.6 6.1 0.00 0.35 0.00 75 1010.6
20260507031800 56 261 1.7 6.1 0.00 0.35 0.00 75 1010.6
20260507031600 56 286 3.5 6.1 0.00 0.35 0.00 75 1010.6
20260507031503 56 286 1.7 6.1 0.00 0.35 0.00 75 1010.5
20260507031402 56 306 4.3 6.1 0.00 0.35 0.00 74 1010.5
20260507031301 57 325 2.6 6.1 0.00 0.35 0.00 76 1010.5
20260507031104 57 316 3.5 6.1 0.00 0.35 0.00 74 1010.5
20260507031000 57 335 4.3 6.1 0.00 0.35 0.00 74 1010.6
20260507030903 57 334 3.5 6.1 0.00 0.35 0.00 74 1010.6
20260507030805 57 331 3.5 6.1 0.00 0.35 0.00 73 1010.6
20260507030659 57 320 4.3 6.1 0.00 0.35 0.00 73 1010.6
20260507030601 58 338 3.5 6.1 0.00 0.35 0.00 73 1010.6
20260507030400 58 355 2.6 6.1 0.00 0.35 0.00 73 1010.5
20260507030202 58 355 6.1 6.1 0.00 0.35 0.00 72 1010.5
20260507030100 58 348 4.3 6.1 0.00 0.35 0.00 72 1010.5
20260507030005 58 13 2.6 7.0 0.00 0.35 0.00 71 1010.4
20260507025902 58 355 3.5 7.0 0.00 0.37 0.00 71 1010.4
20260507025759 59 12 5.2 7.0 0.00 0.37 0.00 68 1010.4
20260507025702 59 355 5.2 7.0 0.00 0.37 0.00 67 1010.4
20260507025602 59 327 3.5 7.0 0.00 0.37 0.00 67 1010.4
20260507025500 59 21 0.9 7.0 0.00 0.37 0.00 67 1010.4
20260507025401 59 201 0.9 7.0 0.00 0.37 0.00 66 1010.3
20260507025306 58 201 0.9 8.7 0.00 0.37 0.00 66 1010.3
20260507025159 58 184 1.7 10.4 0.00 0.37 0.00 67 1010.4
20260507025102 58 194 3.5 10.4 0.00 0.37 0.00 68 1010.4
20260507025004 58 177 5.2 10.4 0.00 0.37 0.00 68 1010.4
20260507024859 58 182 3.5 10.4 0.00 0.37 0.00 68 1010.3
20260507024801 58 200 3.5 10.4 0.00 0.37 0.00 68 1010.3
20260507024703 58 215 5.2 10.4 0.00 0.37 0.00 69 1010.3
20260507024559 58 187 5.2 10.4 0.00 0.37 0.00 69 1010.3
20260507024503 58 187 4.3 10.4 0.00 0.37 0.00 69 1010.2
20260507024404 58 189 4.3 10.4 0.00 0.37 0.00 70 1010.2
20260507024301 58 186 4.3 10.4 0.00 0.37 0.00 70 1010.2
20260507024203 58 195 7.0 9.6 0.00 0.37 0.00 71 1010.2
20260507024105 58 196 6.1 9.6 0.00 0.37 0.00 71 1010.2
20260507024000 58 167 4.3 9.6 0.00 0.37 0.00 71 1010.2
20260507023901 58 182 4.3 11.3 0.00 0.37 0.00 71 1010.2
20260507023802 58 175 4.3 11.3 0.00 0.37 0.00 71 1010.2
20260507023601 58 167 7.0 11.3 0.00 0.37 0.00 71 1010.2
20260507023502 58 176 6.1 11.3 0.00 0.37 0.00 71 1010.3
20260507023301 58 174 4.3 11.3 0.00 0.37 0.00 70 1010.3
20260507023059 58 169 6.1 11.3 0.00 0.37 0.00 71 1010.3
20260507023003 58 170 6.1 11.3 0.00 0.37 0.00 71 1010.3
20260507022903 58 179 6.1 11.3 0.00 0.37 0.00 70 1010.3
20260507022702 58 198 7.0 9.6 0.00 0.37 0.00 71 1010.4
20260507022603 58 182 9.6 10.4 0.00 0.37 0.00 71 1010.4
20260507022501 58 184 7.8 10.4 0.00 0.37 0.00 71 1010.5
20260507022406 58 184 7.8 10.4 0.00 0.37 0.00 71 1010.5
20260507022306 58 192 7.0 9.6 0.00 0.37 0.00 71 1010.5
20260507022159 58 188 5.2 10.4 0.00 0.37 0.00 71 1010.5
20260507022102 58 190 7.0 10.4 0.00 0.37 0.00 71 1010.5
20260507022003 58 223 7.8 9.6 0.00 0.37 0.00 71 1010.5
20260507021900 58 205 8.7 9.6 0.00 0.37 0.00 71 1010.5
20260507021801 59 185 6.1 9.6 0.00 0.37 0.00 71 1010.5
20260507021702 58 211 6.1 9.6 0.00 0.37 0.00 71 1010.5
20260507021559 58 224 7.0 9.6 0.00 0.37 0.00 71 1010.5
20260507021402 59 223 6.1 9.6 0.00 0.37 0.00 71 1010.6
20260507021300 59 229 6.1 9.6 0.00 0.37 0.00 71 1010.6
20260507021103 59 241 7.0 8.7 0.00 0.37 0.00 70 1010.6
20260507021001 59 225 5.2 8.7 0.00 0.37 0.00 70 1010.6
20260507020901 59 233 5.2 8.7 0.00 0.37 0.00 70 1010.6
20260507020659 58 218 7.0 8.7 0.00 0.37 0.00 70 1010.6
20260507020601 58 240 5.2 8.7 0.00 0.37 0.00 71 1010.6
20260507020505 58 211 6.1 8.7 0.00 0.37 0.00 71 1010.6
20260507020400 58 225 4.3 8.7 0.00 0.37 0.00 71 1010.6
20260507020204 58 236 7.0 8.7 0.00 0.37 0.00 72 1010.6
20260507015902 58 229 7.0 7.0 0.00 0.38 0.00 73 1010.6
20260507015801 58 247 4.3 6.1 0.00 0.38 0.00 73 1010.6
20260507015702 58 243 6.1 6.1 0.00 0.38 0.00 73 1010.6
20260507015602 58 249 3.5 5.2 0.00 0.38 0.00 73 1010.6
20260507015200 58 227 1.7 5.2 0.00 0.38 0.00 72 1010.6
20260507015102 58 227 2.6 5.2 0.00 0.38 0.00 72 1010.6
20260507015006 58 227 1.7 6.1 0.00 0.38 0.00 72 1010.6
20260507014859 58 227 3.5 6.1 0.00 0.38 0.00 72 1010.6
20260507014802 58 227 2.6 6.1 0.00 0.38 0.00 72 1010.6
20260507014702 58 213 4.3 6.1 0.00 0.38 0.00 73 1010.6
20260507014605 58 246 1.7 6.1 0.00 0.38 0.00 72 1010.6
20260507014502 58 231 2.6 6.1 0.00 0.38 0.00 72 1010.7
20260507014402 58 254 2.6 6.1 0.00 0.38 0.00 72 1010.7
20260507014259 58 221 3.5 6.1 0.00 0.38 0.00 72 1010.7
20260507014203 58 252 3.5 6.1 0.00 0.38 0.00 73 1010.7
20260507014102 58 246 2.6 6.1 0.00 0.38 0.00 72 1010.6
20260507014002 58 232 2.6 6.1 0.00 0.38 0.00 72 1010.6
20260507013902 58 239 1.7 6.1 0.00 0.38 0.00 72 1010.6
20260507013802 58 239 4.3 7.0 0.00 0.38 0.00 72 1010.6
20260507013559 58 248 4.3 7.8 0.00 0.38 0.00 71 1010.5
20260507013520 58 234 3.5 7.8 0.00 0.38 0.00 71 1010.5
20260507013359 59 242 3.5 7.8 0.00 0.38 0.00 71 1010.4
20260507013300 59 250 1.7 7.8 0.00 0.38 0.00 71 1010.5
20260507013203 59 239 4.3 7.8 0.00 0.38 0.00 71 1010.4
20260507013059 59 239 3.5 7.8 0.00 0.38 0.00 71 1010.4
20260507013000 59 242 4.3 8.7 0.00 0.38 0.00 70 1010.4
20260507012902 59 226 4.3 9.6 0.00 0.38 0.00 71 1010.4
20260507012759 59 239 6.1 9.6 0.00 0.38 0.00 71 1010.4
20260507012659 59 240 6.1 10.4 0.00 0.38 0.00 71 1010.4
20260507012602 59 229 7.0 11.3 0.00 0.38 0.00 71 1010.4
20260507012501 59 233 5.2 11.3 0.00 0.38 0.00 71 1010.5
20260507012400 59 240 5.2 11.3 0.00 0.38 0.00 70 1010.5
20260507012305 59 243 5.2 11.3 0.00 0.38 0.00 70 1010.5
20260507012200 59 240 6.1 11.3 0.00 0.38 0.00 70 1010.4
20260507012059 59 236 6.1 11.3 0.00 0.38 0.00 70 1010.4
20260507012004 59 236 7.0 11.3 0.00 0.38 0.00 70 1010.4
20260507011900 59 232 8.7 11.3 0.00 0.38 0.00 70 1010.4
20260507011801 59 234 9.6 11.3 0.00 0.38 0.00 71 1010.4
20260507011702 59 218 9.6 11.3 0.00 0.38 0.00 71 1010.3
20260507011601 58 229 9.6 10.4 0.00 0.38 0.00 71 1010.4
20260507011500 58 221 10.4 10.4 0.00 0.38 0.00 71 1010.4
20260507011403 58 227 8.7 10.4 0.00 0.38 0.00 72 1010.4
20260507011259 58 233 7.0 7.8 0.00 0.38 0.00 72 1010.4
20260507011200 58 240 6.1 7.8 0.00 0.38 0.00 71 1010.4
20260507011103 58 252 6.1 7.8 0.00 0.38 0.00 72 1010.5
20260507011002 58 230 4.3 7.8 0.00 0.38 0.00 72 1010.4
20260507010859 58 247 3.5 7.8 0.00 0.38 0.00 72 1010.5
20260507010802 58 240 7.0 7.8 0.00 0.38 0.00 72 1010.4
20260507010700 58 220 5.2 7.0 0.00 0.38 0.00 72 1010.5
20260507010601 58 230 6.1 6.1 0.00 0.38 0.00 72 1010.5
20260507010503 58 234 4.3 6.1 0.00 0.38 0.00 72 1010.5
20260507010359 58 240 3.5 7.0 0.00 0.38 0.00 72 1010.5
20260507010259 58 236 6.1 7.0 0.00 0.38 0.00 73 1010.5
20260507010203 58 221 5.2 7.0 0.00 0.38 0.00 72 1010.4
20260507010100 58 225 3.5 7.0 0.00 0.38 0.00 72 1010.4
20260507010003 58 238 2.6 7.0 0.00 0.38 0.00 72 1010.5
20260507005902 58 263 4.3 7.0 0.00 0.42 0.00 72 1010.5
20260507005759 58 232 6.1 7.0 0.00 0.42 0.00 72 1010.5
20260507005659 59 237 4.3 7.0 0.00 0.42 0.00 72 1010.5
20260507005602 59 218 3.5 7.0 0.00 0.42 0.00 72 1010.6
20260507005500 59 230 6.1 7.0 0.00 0.42 0.00 72 1010.6
20260507005400 59 217 7.0 7.0 0.00 0.42 0.00 72 1010.6
20260507005305 59 232 7.0 7.0 0.00 0.42 0.00 72 1010.6
20260507005159 59 242 5.2 7.8 0.00 0.42 0.00 72 1010.6
20260507005059 59 205 3.5 7.8 0.00 0.42 0.00 71 1010.6
20260507005004 59 240 2.6 7.8 0.00 0.42 0.00 71 1010.6
20260507004859 59 221 6.1 7.8 0.00 0.42 0.00 71 1010.7
20260507004801 59 257 5.2 7.8 0.00 0.42 0.00 71 1010.6
20260507004704 59 240 4.3 7.8 0.00 0.42 0.00 71 1010.6
20260507004510 59 237 5.2 7.8 0.00 0.42 0.00 70 1010.6
20260507004404 59 241 4.3 7.8 0.00 0.42 0.00 70 1010.6
20260507004259 59 228 3.5 7.8 0.00 0.42 0.00 70 1010.6
20260507004102 59 244 3.5 7.8 0.00 0.42 0.00 71 1010.7
20260507004001 59 250 6.1 7.8 0.00 0.42 0.00 71 1010.7
20260507003859 59 234 5.2 7.8 0.00 0.42 0.00 71 1010.7
20260507003803 59 227 5.2 7.8 0.00 0.42 0.00 70 1010.7
20260507003700 59 234 6.1 7.8 0.00 0.42 0.00 71 1010.7
20260507003600 59 227 4.3 6.1 0.00 0.42 0.00 71 1010.7
20260507003504 59 250 4.3 6.1 0.00 0.42 0.00 70 1010.7
20260507003359 59 235 5.2 6.1 0.00 0.42 0.00 71 1010.7
20260507003259 59 226 3.5 6.1 0.00 0.42 0.00 70 1010.7
20260507003202 59 220 4.3 6.1 0.00 0.42 0.00 71 1010.7
20260507003101 59 213 4.3 6.1 0.00 0.42 0.00 71 1010.7
20260507003001 59 232 5.2 6.1 0.00 0.42 0.00 71 1010.7
20260507002800 59 235 3.5 6.1 0.00 0.42 0.00 71 1010.6
20260507002700 59 251 3.5 5.2 0.00 0.42 0.00 71 1010.6
20260507002602 60 232 1.7 5.2 0.00 0.42 0.00 70 1010.6
20260507002500 60 242 3.5 5.2 0.00 0.42 0.00 70 1010.6
20260507002359 60 255 2.6 5.2 0.00 0.42 0.00 70 1010.6
20260507002306 60 281 1.7 5.2 0.00 0.42 0.00 69 1010.6
20260507002159 60 275 2.6 5.2 0.00 0.42 0.00 69 1010.6
20260507002059 60 271 3.5 5.2 0.00 0.42 0.00 69 1010.6
20260507002004 60 290 3.5 5.2 0.00 0.42 0.00 69 1010.6
20260507001800 60 254 3.5 7.0 0.00 0.42 0.00 69 1010.5
20260507001704 60 254 2.6 9.6 0.00 0.42 0.00 68 1010.5
20260507001600 60 254 2.6 9.6 0.00 0.42 0.00 68 1010.5
20260507001501 60 254 2.6 10.4 0.00 0.42 0.00 68 1010.5
20260507001403 60 254 1.7 10.4 0.00 0.42 0.00 67 1010.5
20260507001159 60 238 2.6 10.4 0.00 0.42 0.00 68 1010.5
20260507001103 60 243 4.3 10.4 0.00 0.42 0.00 67 1010.6
20260507001001 60 231 1.7 10.4 0.00 0.42 0.00 67 1010.6
20260507000859 60 209 6.1 10.4 0.00 0.42 0.00 67 1010.5
20260507000802 60 225 4.3 10.4 0.00 0.42 0.00 67 1010.5
20260507000659 60 196 8.7 13.0 0.00 0.42 0.00 67 1010.5
20260507000600 60 190 8.7 13.0 0.00 0.42 0.00 67 1010.5
20260507000503 60 201 6.1 13.0 0.00 0.42 0.00 67 1010.5
20260507000359 60 193 3.5 13.0 0.00 0.42 0.00 67 1010.5
20260507000259 60 182 7.0 13.0 0.00 0.42 0.00 67 1010.5
20260507000204 60 159 6.1 13.0 0.00 0.42 0.00 67 1010.5
20260507000112 60 193 6.1 13.0 0.00 0.42 0.00 67 1010.5
20260507000003 60 205 4.3 13.0 0.00 0.42 0.00 67 1010.5
20260506235902 60 173 7.0 13.0 0.00 0.42 0.00 67 1010.5
20260506235800 60 198 10.4 13.0 0.00 0.42 0.00 67 1010.5
20260506235700 60 186 5.2 9.6 0.00 0.42 0.00 68 1010.5
20260506235602 60 188 6.1 9.6 0.00 0.42 0.00 68 1010.6
20260506235500 60 192 3.5 9.6 0.00 0.42 0.00 67 1010.6
20260506235400 60 201 6.1 9.6 0.00 0.42 0.00 67 1010.5
20260506235159 60 194 7.8 9.6 0.00 0.42 0.00 67 1010.5
20260506235059 60 221 8.7 10.4 0.00 0.42 0.00 68 1010.5
20260506235005 60 194 7.0 11.3 0.00 0.42 0.00 68 1010.5
20260506234859 60 185 2.6 11.3 0.00 0.42 0.00 67 1010.6
20260506234759 60 178 7.8 11.3 0.00 0.42 0.00 67 1010.6
20260506234702 60 188 6.1 11.3 0.00 0.42 0.00 67 1010.6
20260506234559 60 186 4.3 11.3 0.00 0.42 0.00 67 1010.6
20260506234403 60 159 2.6 11.3 0.00 0.42 0.00 67 1010.6
20260506234159 60 191 7.8 11.3 0.00 0.42 0.00 68 1010.6
20260506234001 60 202 7.0 9.6 0.00 0.42 0.00 68 1010.7
20260506233859 60 194 4.3 9.6 0.00 0.42 0.00 68 1010.7
20260506233802 60 204 6.1 9.6 0.00 0.42 0.00 68 1010.6
20260506233503 60 220 6.1 9.6 0.00 0.42 0.00 68 1010.7
20260506233300 60 202 3.5 9.6 0.00 0.42 0.00 69 1010.7
20260506233202 60 262 3.5 9.6 0.00 0.42 0.00 69 1010.7
20260506233100 60 248 3.5 9.6 0.00 0.42 0.00 69 1010.7
20260506233004 60 269 3.5 10.4 0.00 0.42 0.00 69 1010.7
20260506232904 60 267 4.3 10.4 0.00 0.42 0.00 69 1010.7
20260506232800 60 247 1.7 10.4 0.00 0.42 0.00 69 1010.8
20260506232701 60 256 1.7 10.4 0.00 0.42 0.00 70 1010.8
20260506232500 60 232 6.1 10.4 0.00 0.42 0.00 70 1010.7
20260506232359 60 250 3.5 11.3 0.00 0.42 0.00 70 1010.7
20260506232306 60 216 3.5 11.3 0.00 0.42 0.00 70 1010.7
20260506232159 61 212 4.3 11.3 0.00 0.42 0.00 70 1010.7
20260506232059 61 228 5.2 11.3 0.00 0.42 0.00 70 1010.7
20260506232005 61 227 9.6 11.3 0.00 0.42 0.00 70 1010.7
20260506231859 61 218 6.1 13.9 0.00 0.42 0.00 70 1010.7
20260506231800 61 240 7.0 13.9 0.00 0.42 0.00 69 1010.6
20260506231702 61 202 5.2 15.6 0.00 0.42 0.00 69 1010.6
20260506231502 61 209 7.8 15.6 0.00 0.42 0.00 69 1010.6
20260506231407 61 206 6.1 18.2 0.00 0.42 0.00 69 1010.6
20260506231200 61 191 8.7 18.2 0.00 0.42 0.00 69 1010.5
20260506231103 61 207 6.1 18.2 0.00 0.42 0.00 69 1010.5
20260506231000 61 197 8.7 18.2 0.00 0.42 0.00 69 1010.6
20260506230900 61 190 8.7 18.2 0.00 0.42 0.00 69 1010.6
20260506230802 61 200 8.7 18.2 0.00 0.42 0.00 70 1010.6
20260506230601 61 211 9.6 18.2 0.00 0.42 0.00 71 1010.7
20260506230506 61 205 9.6 18.2 0.00 0.42 0.00 71 1010.7
20260506230359 61 182 13.0 17.4 0.00 0.42 0.00 71 1010.6
20260506230259 61 192 7.0 17.4 0.00 0.42 0.00 72 1010.7
20260506230003 61 187 7.8 20.0 0.00 0.42 0.00 72 1010.6
20260506225902 61 200 7.0 20.0 0.00 0.43 0.00 72 1010.6
20260506225759 61 227 9.6 20.0 0.00 0.43 0.00 72 1010.7
20260506225602 61 217 15.6 20.0 0.00 0.43 0.00 72 1010.6
20260506225500 61 230 11.3 20.0 0.00 0.43 0.00 72 1010.7
20260506225400 61 224 13.0 20.0 0.00 0.43 0.00 72 1010.6
20260506225159 61 216 15.6 20.0 0.00 0.43 0.00 72 1010.5
20260506225100 61 225 18.2 20.0 0.00 0.43 0.00 72 1010.5
20260506225004 61 232 11.3 20.0 0.00 0.43 0.00 72 1010.5
20260506224900 61 217 17.4 20.0 0.00 0.43 0.00 72 1010.5
20260506224705 61 229 13.0 20.9 0.00 0.43 0.00 72 1010.5
20260506224600 61 198 17.4 20.9 0.00 0.43 0.00 72 1010.5
20260506224500 61 217 18.2 20.9 0.00 0.43 0.00 73 1010.5
20260506224402 61 187 8.7 20.9 0.00 0.43 0.00 73 1010.5
20260506224200 61 196 11.3 20.9 0.00 0.43 0.00 72 1010.5
20260506224102 61 218 15.6 20.9 0.00 0.43 0.00 72 1010.5
20260506223659 61 217 14.8 19.1 0.00 0.43 0.00 72 1010.4
20260506223600 61 225 14.8 19.1 0.00 0.43 0.00 73 1010.4
20260506223504 61 227 13.9 19.1 0.00 0.43 0.00 73 1010.4
20260506223401 61 210 10.4 19.1 0.00 0.43 0.00 73 1010.5
20260506223306 61 211 7.0 19.1 0.00 0.43 0.00 73 1010.5
20260506223202 61 226 9.6 19.1 0.00 0.43 0.00 73 1010.4
20260506223059 61 212 16.5 19.1 0.00 0.43 0.00 73 1010.4
20260506223002 61 190 12.2 19.1 0.00 0.43 0.00 73 1010.4
20260506222906 61 197 10.4 19.1 0.00 0.43 0.00 73 1010.4
20260506222800 61 204 8.7 18.2 0.00 0.43 0.00 73 1010.4
20260506222605 61 192 6.1 18.2 0.00 0.43 0.00 73 1010.5
20260506222500 61 216 9.6 18.2 0.01 0.43 0.00 73 1010.5
20260506222400 61 193 9.6 18.2 0.01 0.43 0.00 73 1010.5
20260506222305 61 215 7.8 18.2 0.01 0.43 0.00 72 1010.5
20260506222203 61 202 10.4 18.2 0.01 0.43 0.00 72 1010.5
20260506222059 61 201 10.4 18.2 0.01 0.43 0.00 72 1010.5
20260506222005 61 213 13.9 18.2 0.01 0.43 0.00 72 1010.5
20260506221900 61 206 11.3 18.2 0.01 0.43 0.00 72 1010.6
20260506221759 61 221 10.4 20.9 0.01 0.43 0.00 72 1010.5
20260506221703 61 212 9.6 20.9 0.01 0.43 0.00 72 1010.5
20260506221600 61 207 10.4 20.9 0.01 0.43 0.00 72 1010.6
20260506221501 61 207 12.2 20.9 0.01 0.43 0.00 71 1010.4
20260506221402 61 194 17.4 20.9 0.01 0.43 0.00 71 1010.4
20260506221300 61 189 11.3 20.9 0.01 0.43 0.00 71 1010.5
20260506221103 61 194 11.3 20.9 0.01 0.43 0.00 70 1010.4
20260506220859 61 201 14.8 20.9 0.01 0.43 0.00 70 1010.4
20260506220559 61 207 14.8 20.9 0.01 0.43 0.00 70 1010.3
20260506220359 61 223 18.2 21.7 0.01 0.43 0.00 70 1010.3
20260506220259 61 218 15.6 21.7 0.01 0.43 0.00 70 1010.3
20260506220204 61 185 17.4 21.7 0.01 0.43 0.00 70 1010.3
20260506220118 61 221 19.1 21.7 0.01 0.43 0.00 70 1010.4
20260506220006 61 202 13.0 21.7 0.01 0.43 0.00 70 1010.4
20260506215803 61 217 15.6 21.7 0.01 0.43 0.43 69 1010.4
20260506215700 61 215 17.4 21.7 0.01 0.43 0.43 69 1010.4
20260506215603 61 219 18.2 21.7 0.01 0.43 0.43 70 1010.4
20260506215400 61 180 12.2 19.1 0.01 0.43 0.43 70 1010.4
20260506215305 61 213 13.0 19.1 0.01 0.43 0.43 70 1010.4
20260506215202 61 222 12.2 19.1 0.01 0.43 0.43 70 1010.4
20260506215004 60 218 13.9 18.2 0.01 0.43 0.43 71 1010.4
20260506214902 60 208 8.7 18.2 0.01 0.43 0.43 71 1010.4
20260506214704 60 208 10.4 18.2 0.01 0.43 0.43 72 1010.4
20260506214602 60 192 14.8 18.2 0.01 0.43 0.43 72 1010.5
20260506214501 60 220 10.4 18.2 0.01 0.43 0.43 73 1010.5
20260506214403 60 213 14.8 18.2 0.01 0.43 0.43 73 1010.5
20260506214201 60 205 7.8 19.1 0.01 0.43 0.43 75 1010.5
20260506214103 60 181 12.2 19.1 0.01 0.43 0.43 75 1010.5
20260506214007 60 221 13.0 19.1 0.01 0.43 0.43 75 1010.5
20260506213901 60 213 12.2 19.1 0.01 0.43 0.43 76 1010.5
20260506213803 60 223 7.8 19.1 0.01 0.43 0.43 76 1010.5
20260506213703 60 205 8.7 19.1 0.01 0.43 0.43 76 1010.5
20260506213602 59 215 12.2 19.1 0.01 0.43 0.43 76 1010.4
20260506213505 60 212 15.6 16.5 0.01 0.43 0.43 76 1010.5
20260506213402 60 200 12.2 16.5 0.01 0.43 0.43 76 1010.5
20260506213301 60 213 10.4 16.5 0.01 0.43 0.43 77 1010.5
20260506213219 60 214 8.7 16.5 0.01 0.43 0.43 76 1010.5
20260506213103 60 214 8.7 16.5 0.01 0.43 0.43 76 1010.4
20260506213002 60 221 17.4 17.4 0.01 0.43 0.43 76 1010.4
20260506212903 60 212 7.8 19.1 0.01 0.43 0.43 76 1010.4
20260506212804 60 225 9.6 19.1 0.01 0.43 0.43 76 1010.4
20260506212701 60 220 10.4 19.1 0.01 0.43 0.43 75 1010.4
20260506212608 60 214 13.0 19.1 0.01 0.43 0.43 75 1010.4
20260506212504 60 218 12.2 19.1 0.00 0.42 0.42 75 1010.4
20260506212400 61 209 15.6 19.1 0.00 0.42 0.42 75 1010.5
20260506212307 61 208 7.0 19.1 0.00 0.42 0.42 75 1010.5
20260506212107 61 217 13.0 19.1 0.00 0.42 0.42 73 1010.3
20260506212005 61 221 12.2 19.1 0.00 0.42 0.42 73 1010.3
20260506211902 61 209 12.2 18.2 0.00 0.42 0.42 74 1010.4
20260506211800 61 221 7.8 20.0 0.00 0.42 0.42 73 1010.4
20260506211708 61 200 9.6 20.0 0.00 0.42 0.42 73 1010.4
20260506211603 61 183 14.8 20.0 0.00 0.42 0.42 73 1010.4
20260506211501 61 188 12.2 20.0 0.00 0.42 0.42 72 1010.4
20260506211403 61 238 11.3 20.0 0.00 0.42 0.42 72 1010.4
20260506211304 62 203 13.9 20.0 0.00 0.42 0.42 71 1010.4
20260506211200 62 194 14.8 20.0 0.00 0.42 0.42 71 1010.4
20260506211104 62 200 11.3 20.0 0.00 0.42 0.42 71 1010.4
20260506211003 62 211 13.9 20.0 0.00 0.42 0.42 71 1010.3
20260506210901 62 209 18.2 20.0 0.00 0.42 0.42 70 1010.3
20260506210703 62 203 10.4 20.0 0.00 0.42 0.42 70 1010.3
20260506210601 62 184 15.6 20.0 0.00 0.42 0.42 70 1010.3
20260506210504 62 187 11.3 20.0 0.00 0.42 0.42 70 1010.3
20260506210300 62 200 17.4 20.0 0.00 0.42 0.42 70 1010.2
20260506205904 62 184 15.6 17.4 0.00 0.42 0.42 72 1010.2
20260506205802 61 203 11.3 14.8 0.00 0.42 0.42 72 1010.3
20260506205701 61 174 11.3 15.6 0.00 0.42 0.42 73 1010.3
20260506205603 61 199 9.6 15.6 0.00 0.42 0.42 73 1010.3
20260506205503 61 204 11.3 14.8 0.00 0.42 0.42 74 1010.3
20260506205100 61 207 10.4 14.8 0.00 0.42 0.42 74 1010.3
20260506204903 61 192 5.2 14.8 0.00 0.42 0.42 74 1010.2
20260506204800 61 208 7.0 14.8 0.00 0.42 0.42 75 1010.3
20260506204703 61 178 8.7 12.2 0.00 0.42 0.42 75 1010.3
20260506204603 61 186 9.6 13.0 0.00 0.42 0.42 76 1010.2
20260506204500 61 180 5.2 13.0 0.00 0.42 0.42 75 1010.3
20260506204302 61 171 3.5 13.0 0.00 0.42 0.42 76 1010.3
20260506204200 61 185 7.8 13.0 0.00 0.42 0.42 76 1010.3
20260506204103 61 199 6.1 14.8 0.00 0.42 0.42 77 1010.3
20260506203900 61 188 11.3 14.8 0.00 0.42 0.42 76 1010.3
20260506203803 61 174 6.1 14.8 0.00 0.42 0.42 76 1010.4
20260506203703 61 166 7.8 14.8 0.00 0.42 0.42 77 1010.4
20260506203503 61 171 12.2 14.8 0.00 0.42 0.42 77 1010.3
20260506203403 61 165 6.1 14.8 0.00 0.42 0.42 77 1010.3
20260506203301 61 191 8.7 14.8 0.00 0.42 0.42 77 1010.3
20260506203206 61 188 13.0 14.8 0.00 0.42 0.42 78 1010.3
20260506203105 61 168 4.3 8.7 0.00 0.42 0.42 78 1010.3
20260506203003 61 170 3.5 7.8 0.00 0.42 0.42 79 1010.3
20260506202904 61 176 6.1 7.8 0.00 0.42 0.42 79 1010.3
20260506202803 61 174 7.0 8.7 0.00 0.42 0.42 79 1010.3
20260506202702 61 167 2.6 7.8 0.00 0.42 0.42 80 1010.3
20260506202608 60 162 2.6 7.0 0.00 0.42 0.42 80 1010.3
20260506202506 60 180 4.3 6.1 0.00 0.42 0.42 80 1010.3
20260506202402 60 204 3.5 6.1 0.00 0.42 0.42 80 1010.3
20260506202317 60 175 3.5 6.1 0.00 0.42 0.42 80 1010.3
20260506202205 60 178 5.2 6.1 0.00 0.42 0.42 80 1010.4
20260506201906 60 171 2.6 6.1 0.00 0.42 0.42 81 1010.4
20260506201802 60 164 3.5 6.1 0.00 0.42 0.42 81 1010.3
20260506201704 60 173 5.2 6.1 0.00 0.42 0.42 81 1010.3
20260506201604 60 140 3.5 6.1 0.00 0.42 0.42 81 1010.3
20260506201505 60 161 1.7 4.3 0.00 0.42 0.42 80 1010.3
20260506201201 60 161 2.6 4.3 0.00 0.42 0.42 80 1010.1
20260506201104 60 161 1.7 4.3 0.00 0.42 0.42 81 1010.1
20260506201004 60 142 1.7 4.3 0.00 0.42 0.42 81 1010.2
20260506200803 60 190 1.7 6.1 0.00 0.42 0.42 81 1010.2
20260506200706 60 169 3.5 6.1 0.00 0.42 0.42 81 1010.2
20260506200602 60 167 1.7 6.1 0.00 0.42 0.42 81 1010.2
20260506200506 60 199 2.6 6.1 0.00 0.42 0.42 81 1010.2
20260506200302 60 187 3.5 6.1 0.00 0.42 0.42 81 1010.2
20260506200209 60 180 1.7 6.1 0.00 0.42 0.42 81 1010.2
20260506200131 60 178 2.6 6.1 0.00 0.42 0.42 82 1010.1
20260506200008 60 159 2.6 6.1 0.00 0.42 0.42 82 1010.1
20260506195907 60 200 2.6 5.2 0.00 0.42 0.42 82 1010.1
20260506195801 60 177 1.7 5.2 0.00 0.42 0.42 82 1010.1
20260506195704 60 177 1.7 5.2 0.00 0.42 0.42 82 1010.1
20260506195605 60 177 1.7 5.2 0.00 0.42 0.42 82 1010.1
20260506195500 60 192 1.7 7.8 0.00 0.42 0.42 82 1010.1
20260506195309 60 196 2.6 7.8 0.00 0.42 0.42 82 1010.1
20260506194804 60 178 1.7 7.8 0.00 0.42 0.42 82 1010.0
20260506194705 60 167 2.6 7.8 0.00 0.42 0.42 82 1009.9
20260506194603 60 192 5.2 7.8 0.00 0.42 0.42 82 1010.0
20260506194502 60 159 5.2 7.0 0.00 0.42 0.42 82 1009.9
20260506194425 60 178 4.3 7.0 0.00 0.42 0.42 82 1009.9
20260506194303 60 148 3.5 7.0 0.00 0.42 0.42 82 1009.9
20260506194202 60 169 3.5 7.0 0.00 0.42 0.42 82 1009.9
20260506194101 60 182 3.5 6.1 0.00 0.42 0.42 82 1009.9
20260506194031 60 173 3.5 6.1 0.00 0.42 0.42 82 1009.9
20260506193905 60 189 3.5 7.0 0.00 0.42 0.42 83 1009.8
20260506193605 60 175 4.3 7.0 0.00 0.42 0.42 83 1009.8
20260506193505 60 177 2.6 7.0 0.00 0.42 0.42 83 1009.8
20260506193405 60 157 4.3 7.0 0.00 0.42 0.42 83 1009.8
20260506193302 60 160 1.7 7.0 0.00 0.42 0.42 83 1009.7
20260506193202 60 167 3.5 7.0 0.00 0.42 0.42 83 1009.7
20260506193003 60 177 5.2 7.8 0.00 0.42 0.42 83 1009.6
20260506192823 60 193 4.3 7.8 0.00 0.42 0.42 83 1009.6
20260506192702 60 179 3.5 7.8 0.00 0.42 0.42 83 1009.6
20260506192606 60 182 5.2 8.7 0.00 0.42 0.42 83 1009.6
20260506192518 60 185 3.5 8.7 0.00 0.42 0.42 83 1009.6
20260506192401 60 167 1.7 8.7 0.00 0.42 0.42 83 1009.6
20260506192305 60 192 2.6 8.7 0.00 0.42 0.42 83 1009.6
20260506192104 60 175 5.2 8.7 0.00 0.42 0.42 84 1009.6
20260506191912 60 164 2.6 9.6 0.00 0.42 0.42 84 1009.6
20260506191802 60 174 7.0 9.6 0.00 0.42 0.42 84 1009.5
20260506191703 60 161 3.5 9.6 0.00 0.42 0.42 84 1009.5
20260506191502 60 171 3.5 11.3 0.00 0.42 0.42 84 1009.5
20260506191406 60 153 4.3 11.3 0.00 0.42 0.42 84 1009.5
20260506191305 60 179 3.5 11.3 0.00 0.42 0.42 84 1009.5
20260506191101 60 191 7.8 11.3 0.00 0.42 0.42 84 1009.5
20260506191026 60 189 5.2 11.3 0.00 0.42 0.42 84 1009.5
20260506190921 60 184 7.0 11.3 0.00 0.42 0.42 84 1009.5
20260506190804 60 182 5.2 11.3 0.00 0.42 0.42 84 1009.5
20260506190602 60 163 6.1 11.3 0.00 0.42 0.42 84 1009.5
20260506190502 60 178 4.3 11.3 0.00 0.42 0.42 84 1009.5
20260506190405 60 159 4.3 11.3 0.00 0.42 0.42 84 1009.4
20260506190302 60 184 11.3 11.3 0.00 0.42 0.42 84 1009.4
20260506190205 60 184 11.3 11.3 0.00 0.42 0.42 84 1009.4
20260506190107 60 186 7.8 10.4 0.00 0.42 0.42 84 1009.4
20260506190005 60 180 2.6 10.4 0.00 0.42 0.42 84 1009.3
20260506185908 60 175 7.0 10.4 0.00 0.42 0.42 84 1009.4
20260506185723 60 187 3.5 8.7 0.00 0.42 0.42 84 1009.3
20260506185615 60 170 7.0 8.7 0.00 0.42 0.42 84 1009.3
20260506185403 60 177 3.5 7.8 0.00 0.42 0.42 83 1009.2
20260506185302 60 155 4.3 7.8 0.00 0.42 0.42 83 1009.2
20260506185203 60 175 3.5 6.1 0.00 0.42 0.42 83 1009.1
20260506185114 60 186 3.5 8.7 0.00 0.42 0.42 83 1009.1
20260506185003 60 178 5.2 8.7 0.00 0.42 0.42 83 1009.1
20260506184905 60 180 5.2 8.7 0.00 0.42 0.42 83 1009.1
20260506184804 60 180 2.6 8.7 0.00 0.42 0.42 83 1009.0
20260506184704 60 150 5.2 8.7 0.00 0.42 0.42 84 1009.0
20260506184608 60 165 3.5 8.7 0.00 0.42 0.42 83 1008.9
20260506184403 60 171 3.5 8.7 0.00 0.42 0.42 83 1009.0
20260506184307 60 157 2.6 9.6 0.00 0.42 0.42 83 1009.0
20260506184202 60 155 4.3 9.6 0.00 0.42 0.42 83 1009.0
20260506184102 60 152 8.7 9.6 0.00 0.42 0.42 83 1009.0
20260506183907 60 171 4.3 9.6 0.00 0.42 0.42 83 1009.0
20260506183801 60 163 1.7 9.6 0.00 0.42 0.42 83 1008.9
20260506183704 60 176 4.3 9.6 0.00 0.42 0.42 83 1008.9
20260506183606 60 176 7.0 9.6 0.00 0.42 0.42 83 1008.9
20260506183503 60 184 3.5 9.6 0.00 0.42 0.42 83 1008.9
20260506183401 60 186 4.3 9.6 0.00 0.42 0.42 83 1008.9
20260506183201 60 173 7.8 9.6 0.00 0.42 0.42 83 1008.9
20260506183101 60 194 5.2 9.6 0.00 0.42 0.42 83 1008.9
20260506183032 60 173 3.5 9.6 0.00 0.42 0.42 83 1008.9
20260506182801 60 185 1.7 8.7 0.00 0.42 0.42 83 1008.9
20260506182706 60 149 4.3 11.3 0.00 0.42 0.42 83 1008.9
20260506182502 60 171 6.1 11.3 0.00 0.42 0.42 83 1008.8
20260506182405 60 175 3.5 11.3 0.00 0.42 0.42 83 1008.8
20260506182307 60 162 2.6 11.3 0.01 0.42 0.42 83 1008.9
20260506182202 60 159 7.0 11.3 0.01 0.42 0.42 83 1008.9
20260506182106 60 158 3.5 11.3 0.01 0.42 0.42 83 1008.9
20260506182003 60 177 3.5 11.3 0.01 0.42 0.42 83 1008.9
20260506181919 60 177 6.1 11.3 0.01 0.42 0.42 83 1008.9
20260506181804 61 174 5.2 11.3 0.01 0.42 0.42 83 1008.9
20260506181704 61 157 5.2 9.6 0.01 0.42 0.42 83 1008.9
20260506181605 61 150 4.3 9.6 0.01 0.42 0.42 83 1008.9
20260506181505 61 170 5.2 9.6 0.01 0.42 0.42 83 1008.9
20260506181404 61 169 7.0 9.6 0.01 0.42 0.42 82 1008.9
20260506181303 61 199 5.2 9.6 0.01 0.42 0.42 82 1008.9
20260506181207 61 196 5.2 9.6 0.01 0.42 0.42 82 1008.9
20260506181102 61 191 8.7 9.6 0.01 0.42 0.42 82 1008.9
20260506181004 61 189 6.1 7.8 0.01 0.42 0.42 82 1009.0
20260506180905 61 178 5.2 9.6 0.01 0.42 0.42 82 1009.0
20260506180805 61 180 7.8 9.6 0.01 0.42 0.42 82 1008.9
20260506180702 61 181 6.1 9.6 0.01 0.42 0.42 82 1008.9
20260506180621 61 182 4.3 9.6 0.01 0.42 0.42 81 1008.9
20260506180524 61 183 6.1 10.4 0.01 0.42 0.42 81 1008.9
20260506180401 61 184 5.2 12.2 0.01 0.42 0.42 81 1008.8
20260506180301 61 176 5.2 12.2 0.01 0.42 0.42 81 1008.8
20260506180208 61 197 6.1 12.2 0.01 0.42 0.42 81 1008.8
20260506180120 61 192 6.1 12.2 0.01 0.42 0.42 81 1008.8
20260506180008 61 194 6.1 12.2 0.01 0.42 0.42 81 1008.9
20260506175929 61 185 7.8 12.2 0.01 0.43 0.42 80 1008.8
20260506175801 61 200 6.1 12.2 0.01 0.43 0.42 80 1008.8
20260506175705 61 188 7.0 12.2 0.01 0.43 0.42 80 1008.8
20260506175603 61 163 6.1 12.2 0.01 0.43 0.42 80 1008.8
20260506175200 61 186 8.7 13.9 0.01 0.43 0.42 79 1008.8
20260506175007 61 171 6.1 13.9 0.01 0.43 0.42 79 1008.8
20260506174901 61 186 10.4 13.9 0.01 0.43 0.42 79 1008.8
20260506174807 61 189 5.2 13.9 0.01 0.43 0.42 79 1008.8
20260506174719 61 180 5.2 13.9 0.01 0.43 0.42 79 1008.8
20260506174611 61 173 7.8 13.9 0.01 0.43 0.42 79 1008.8
20260506174503 61 188 9.6 13.9 0.01 0.43 0.42 79 1008.7
20260506174414 61 180 8.7 13.9 0.01 0.43 0.42 79 1008.7
20260506174203 61 178 7.0 14.8 0.01 0.43 0.42 79 1008.7
20260506174103 61 194 12.2 14.8 0.01 0.43 0.42 79 1008.7
20260506174002 61 191 5.2 15.6 0.01 0.43 0.42 79 1008.7
20260506173902 61 188 10.4 15.6 0.01 0.43 0.42 79 1008.7
20260506173803 61 200 9.6 15.6 0.01 0.43 0.42 79 1008.8
20260506173700 61 186 8.7 14.8 0.01 0.43 0.42 79 1008.7
20260506173603 61 180 8.7 16.5 0.01 0.43 0.42 79 1008.7
20260506173504 61 178 9.6 16.5 0.01 0.43 0.42 79 1008.8
20260506173402 61 190 10.4 16.5 0.01 0.43 0.42 79 1008.7
20260506173205 61 207 7.8 16.5 0.02 0.43 0.42 79 1008.7
20260506173101 61 190 13.9 16.5 0.02 0.43 0.42 79 1008.7
20260506173006 61 205 8.7 16.5 0.02 0.43 0.42 80 1008.7
20260506172800 61 189 13.9 16.5 0.02 0.43 0.42 79 1008.6
20260506172702 61 193 13.0 16.5 0.02 0.43 0.42 80 1008.6
20260506172604 61 199 13.0 17.4 0.02 0.43 0.42 80 1008.7
20260506172500 62 198 12.2 17.4 0.02 0.43 0.42 80 1008.6
20260506172402 61 206 11.3 17.4 0.01 0.42 0.41 80 1008.7
20260506172200 62 195 8.7 16.5 0.01 0.42 0.41 80 1008.7
20260506172005 62 191 11.3 13.9 0.01 0.42 0.41 81 1008.6
20260506171903 62 217 9.6 13.9 0.01 0.42 0.41 80 1008.6
20260506171802 62 202 6.1 13.9 0.01 0.42 0.41 80 1008.6
20260506171703 62 196 7.8 13.9 0.01 0.42 0.41 80 1008.6
20260506171600 62 222 11.3 13.9 0.01 0.42 0.41 80 1008.6
20260506171504 62 232 9.6 13.9 0.01 0.42 0.41 80 1008.6
20260506171403 62 204 10.4 13.9 0.01 0.42 0.41 81 1008.6
20260506171300 62 209 8.7 14.8 0.01 0.42 0.41 81 1008.6
20260506171202 62 221 10.4 14.8 0.01 0.42 0.41 81 1008.7
20260506171105 62 186 7.0 14.8 0.01 0.42 0.41 81 1008.7
20260506171001 62 232 9.6 14.8 0.01 0.42 0.41 81 1008.7
20260506170900 62 225 10.4 14.8 0.01 0.42 0.41 81 1008.7
20260506170816 62 209 7.0 14.8 0.01 0.42 0.41 81 1008.7
20260506170700 62 189 9.6 14.8 0.01 0.42 0.41 82 1008.7
20260506170600 62 212 8.7 14.8 0.01 0.42 0.41 82 1008.7
20260506170503 62 218 12.2 14.8 0.01 0.42 0.41 83 1008.7
20260506170400 62 229 13.0 14.8 0.01 0.42 0.41 83 1008.6
20260506170300 62 216 7.0 16.5 0.01 0.42 0.41 83 1008.6
20260506170203 62 214 11.3 16.5 0.01 0.42 0.41 83 1008.6
20260506170005 62 232 11.3 16.5 0.01 0.42 0.41 84 1008.5
20260506165800 62 226 7.0 13.0 0.01 0.42 0.41 84 1008.6
20260506165700 62 219 7.8 12.2 0.01 0.42 0.41 84 1008.6
20260506165605 62 241 5.2 12.2 0.01 0.42 0.41 84 1008.6
20260506165500 62 230 8.7 11.3 0.01 0.42 0.41 85 1008.6
20260506165400 62 225 6.1 11.3 0.01 0.42 0.41 85 1008.5
20260506165305 61 219 9.6 11.3 0.01 0.42 0.41 85 1008.5
20260506165201 62 223 9.6 11.3 0.01 0.42 0.41 84 1008.4
20260506165101 61 231 9.6 11.3 0.01 0.42 0.41 84 1008.4
20260506164900 61 223 10.4 11.3 0.01 0.42 0.41 85 1008.4
20260506164800 62 239 8.7 9.6 0.01 0.42 0.41 85 1008.4
20260506164712 62 241 6.1 11.3 0.01 0.42 0.41 85 1008.4
20260506164600 62 244 4.3 11.3 0.01 0.42 0.41 84 1008.4
20260506164404 62 226 5.2 13.9 0.01 0.42 0.41 84 1008.4
20260506164302 62 225 7.0 13.9 0.01 0.42 0.41 84 1008.3
20260506164200 62 221 6.1 16.5 0.01 0.42 0.41 83 1008.3
20260506164103 62 222 7.0 16.5 0.01 0.42 0.41 83 1008.3
20260506164003 62 231 7.8 16.5 0.01 0.42 0.41 83 1008.3
20260506163900 62 213 6.1 16.5 0.01 0.42 0.41 83 1008.3
20260506163803 62 234 8.7 16.5 0.01 0.42 0.41 83 1008.3
20260506163700 62 227 7.0 16.5 0.01 0.42 0.41 82 1008.3
20260506163300 63 228 12.2 16.5 0.00 0.41 0.40 81 1008.3
20260506163203 63 222 12.2 16.5 0.00 0.41 0.40 81 1008.3
20260506163103 63 226 10.4 16.5 0.00 0.41 0.40 81 1008.3
20260506163001 63 225 11.3 16.5 0.00 0.41 0.40 80 1008.3
20260506162904 63 227 12.2 16.5 0.00 0.41 0.40 80 1008.3
20260506162700 63 224 12.2 16.5 0.00 0.41 0.40 80 1008.2
20260506162605 63 236 10.4 16.5 0.00 0.41 0.40 80 1008.2
20260506162502 63 228 13.9 16.5 0.00 0.41 0.40 80 1008.3
20260506162401 63 218 12.2 13.9 0.00 0.41 0.40 80 1008.3
20260506162306 63 232 9.6 13.9 0.00 0.41 0.40 79 1008.3
20260506162200 63 233 7.8 13.9 0.00 0.41 0.40 79 1008.2
20260506162100 63 225 13.0 13.9 0.00 0.41 0.40 79 1008.2
20260506162003 63 224 8.7 13.9 0.00 0.41 0.40 79 1008.2
20260506161901 63 224 6.1 13.9 0.00 0.41 0.40 79 1008.2
20260506161802 63 238 13.0 14.8 0.00 0.41 0.40 79 1008.2
20260506161703 63 216 7.8 14.8 0.00 0.41 0.40 79 1008.2
20260506161500 63 198 7.8 14.8 0.00 0.41 0.40 78 1008.2
20260506161403 63 225 5.2 14.8 0.00 0.41 0.40 79 1008.2
20260506161301 63 236 7.0 14.8 0.00 0.41 0.40 79 1008.2
20260506161200 64 232 6.1 14.8 0.00 0.41 0.40 78 1008.2
20260506161102 63 232 4.3 14.8 0.00 0.41 0.40 78 1008.2
20260506161002 63 223 7.0 14.8 0.00 0.41 0.40 78 1008.2
20260506160901 63 237 10.4 14.8 0.00 0.41 0.40 78 1008.2
20260506160806 63 229 13.9 14.8 0.00 0.41 0.40 78 1008.2
20260506160700 63 222 6.1 9.6 0.00 0.41 0.40 79 1008.3
20260506160600 63 226 6.1 12.2 0.00 0.41 0.40 79 1008.2
20260506160503 63 249 5.2 12.2 0.00 0.41 0.40 79 1008.2
20260506160407 63 185 3.5 12.2 0.00 0.41 0.40 79 1008.2
20260506160300 63 239 7.0 12.2 0.00 0.41 0.40 79 1008.2
20260506160200 63 214 7.0 12.2 0.00 0.41 0.40 79 1008.2
20260506160123 63 225 6.1 13.0 0.00 0.41 0.40 79 1008.2
20260506160006 63 194 6.1 13.0 0.00 0.41 0.40 79 1008.2
20260506155901 63 236 7.8 13.0 0.00 0.41 0.40 78 1008.1
20260506155806 63 224 7.0 13.0 0.00 0.41 0.40 78 1008.1
20260506155600 63 196 6.1 13.0 0.00 0.41 0.40 78 1008.2
20260506155504 63 207 5.2 13.0 0.00 0.41 0.40 78 1008.2
20260506155400 63 210 6.1 13.0 0.00 0.41 0.40 78 1008.1
20260506155300 63 200 6.1 13.0 0.00 0.41 0.40 78 1008.2
20260506155203 63 188 6.1 14.8 0.00 0.41 0.40 78 1008.2
20260506155100 63 192 10.4 14.8 0.00 0.41 0.40 78 1008.2
20260506155007 63 196 9.6 14.8 0.00 0.41 0.40 78 1008.2
20260506154905 63 199 8.7 14.8 0.00 0.41 0.40 79 1008.1
20260506154800 63 232 8.7 14.8 0.00 0.41 0.40 78 1008.1
20260506154608 63 205 10.4 14.8 0.00 0.41 0.40 79 1008.2
20260506154400 63 196 13.0 16.5 0.01 0.41 0.40 78 1008.2
20260506154200 63 201 10.4 16.5 0.01 0.41 0.40 78 1008.2
20260506154100 63 224 9.6 16.5 0.01 0.41 0.40 78 1008.2
20260506154007 63 218 10.4 16.5 0.01 0.41 0.40 78 1008.2
20260506153900 63 198 13.0 16.5 0.01 0.41 0.40 78 1008.3
20260506153800 63 225 13.0 16.5 0.02 0.41 0.40 78 1008.2
20260506153703 63 194 9.6 19.1 0.02 0.41 0.40 78 1008.2
20260506153601 63 216 12.2 19.1 0.02 0.41 0.40 78 1008.2
20260506153501 63 215 12.2 19.1 0.02 0.41 0.40 78 1008.2
20260506153402 63 201 13.0 19.1 0.03 0.41 0.40 78 1008.2
20260506153300 63 217 10.4 19.1 0.03 0.41 0.40 78 1008.2
20260506153200 63 202 9.6 19.1 0.03 0.41 0.40 78 1008.2
20260506153103 63 221 14.8 19.1 0.03 0.41 0.40 79 1008.2
20260506153002 63 187 11.3 19.1 0.03 0.41 0.40 79 1008.1
20260506152900 62 211 11.3 18.2 0.03 0.41 0.40 79 1008.2
20260506152802 62 237 12.2 18.2 0.03 0.41 0.40 79 1008.1
20260506152700 62 225 18.2 19.1 0.03 0.41 0.40 79 1008.2
20260506152603 62 221 15.6 18.2 0.03 0.41 0.40 80 1008.2
20260506152202 62 217 15.6 18.2 0.03 0.41 0.40 80 1008.2
20260506152001 61 217 10.4 18.2 0.03 0.41 0.40 81 1008.3
20260506151903 61 183 13.0 19.1 0.03 0.41 0.40 81 1008.2
20260506151800 61 207 14.8 19.1 0.03 0.41 0.40 82 1008.2
20260506151700 61 215 14.8 19.1 0.03 0.41 0.40 82 1008.2
20260506151609 61 225 10.4 19.1 0.03 0.41 0.40 82 1008.2
20260506151501 61 225 13.9 19.1 0.03 0.41 0.40 82 1008.2
20260506151400 61 229 13.0 19.1 0.03 0.41 0.40 82 1008.2
20260506151303 61 230 12.2 19.1 0.03 0.41 0.40 82 1008.2
20260506151200 61 229 13.9 19.1 0.03 0.41 0.40 82 1008.3
20260506151100 61 210 13.0 15.6 0.03 0.41 0.40 83 1008.3
20260506151005 61 194 8.7 15.6 0.03 0.41 0.40 83 1008.3
20260506150900 61 217 11.3 15.6 0.03 0.41 0.40 84 1008.4
20260506150804 61 225 11.3 14.8 0.03 0.41 0.40 84 1008.3
20260506150705 61 194 6.1 14.8 0.03 0.41 0.40 84 1008.3
20260506150621 61 229 8.7 14.8 0.03 0.41 0.40 84 1008.3
20260506150402 60 231 12.2 14.8 0.03 0.41 0.40 84 1008.3
20260506150304 60 226 9.6 14.8 0.03 0.41 0.40 86 1008.3
20260506150201 60 216 14.8 14.8 0.03 0.41 0.40 86 1008.3
20260506150009 60 231 7.0 9.6 0.03 0.41 0.40 86 1008.2
20260506145900 60 238 7.0 9.6 0.03 0.41 0.40 86 1008.2
20260506145804 60 227 5.2 9.6 0.03 0.41 0.40 86 1008.2
20260506145701 60 244 3.5 11.3 0.03 0.41 0.40 86 1008.2
20260506145605 60 239 3.5 17.4 0.03 0.41 0.40 86 1008.3
20260506145506 60 243 6.1 17.4 0.03 0.41 0.40 86 1008.3
20260506145300 60 261 6.1 17.4 0.03 0.41 0.40 86 1008.5
20260506145203 60 231 7.0 17.4 0.03 0.41 0.40 86 1008.5
20260506145100 60 237 7.0 17.4 0.03 0.41 0.40 86 1008.5
20260506145001 60 232 7.0 19.1 0.03 0.41 0.40 85 1008.5
20260506144905 60 242 7.8 20.9 0.03 0.41 0.40 85 1008.5
20260506144801 60 233 6.1 20.9 0.03 0.41 0.40 85 1008.5
20260506144700 60 227 11.3 26.9 0.03 0.41 0.40 85 1008.5
20260506144614 60 213 10.4 26.9 0.03 0.41 0.40 85 1008.5
20260506144501 61 233 13.0 26.9 0.02 0.40 0.39 84 1008.6
20260506144400 61 239 12.2 26.9 0.02 0.40 0.39 84 1008.6
20260506144302 61 251 13.0 26.9 0.02 0.40 0.39 84 1008.6
20260506144200 61 239 10.4 26.9 0.02 0.40 0.39 83 1008.7
20260506144100 61 222 12.2 26.9 0.02 0.40 0.39 82 1008.7
20260506144005 61 247 11.3 26.9 0.02 0.40 0.39 82 1008.7
20260506143800 62 223 20.0 26.9 0.02 0.39 0.39 80 1008.5
20260506143703 63 211 20.0 26.1 0.02 0.39 0.39 79 1008.5
20260506143600 63 227 20.0 26.1 0.01 0.39 0.38 79 1008.5
20260506143404 64 271 9.6 26.1 0.00 0.38 0.37 78 1008.5
20260506143300 64 261 18.2 26.1 0.00 0.38 0.37 76 1008.5
20260506143201 65 218 21.7 26.1 0.00 0.38 0.37 77 1008.5
20260506143103 65 216 16.5 17.4 0.00 0.38 0.37 77 1008.4
20260506143002 65 252 10.4 17.4 0.00 0.38 0.37 77 1008.4
20260506142803 65 245 12.2 20.9 0.00 0.38 0.37 76 1008.4
20260506142700 66 265 14.8 20.9 0.00 0.38 0.37 76 1008.4
20260506142601 66 259 7.0 20.9 0.00 0.38 0.37 76 1008.4
20260506142503 66 256 11.3 20.9 0.00 0.38 0.37 75 1008.2
20260506142401 66 265 13.0 20.9 0.00 0.38 0.37 74 1008.2
20260506142300 67 273 7.8 20.9 0.00 0.38 0.37 74 1008.1
20260506142204 67 279 10.4 20.9 0.00 0.38 0.37 72 1008.1
20260506142101 68 252 11.3 20.9 0.00 0.38 0.37 72 1008.0
20260506142001 68 261 12.2 20.9 0.00 0.38 0.37 70 1007.8
20260506141904 69 281 17.4 20.9 0.00 0.38 0.37 69 1007.9
20260506141800 70 282 17.4 20.9 0.00 0.38 0.37 67 1007.8
20260506141700 70 287 16.5 16.5 0.00 0.38 0.37 67 1007.8
20260506141603 70 272 5.2 8.7 0.00 0.38 0.37 65 1007.8
20260506141503 70 246 5.2 8.7 0.00 0.38 0.37 66 1007.7
20260506141303 71 291 5.2 8.7 0.00 0.38 0.37 67 1007.7
20260506141159 71 284 4.3 8.7 0.00 0.38 0.37 68 1007.7
20260506141101 71 281 7.0 8.7 0.00 0.38 0.37 67 1007.7
20260506141010 71 277 5.2 8.7 0.00 0.38 0.37 66 1007.7
20260506140700 71 269 5.2 7.0 0.00 0.38 0.37 65 1007.8
20260506140502 71 271 2.6 6.1 0.00 0.38 0.37 65 1007.8
20260506140305 72 286 6.1 6.1 0.00 0.38 0.37 64 1007.8
20260506140159 72 284 2.6 6.1 0.00 0.38 0.37 63 1007.8
20260506140132 72 292 5.2 6.1 0.00 0.38 0.37 63 1007.8
20260506135803 72 194 2.6 7.0 0.00 0.38 0.37 63 1007.8
20260506135602 72 185 6.1 7.0 0.00 0.38 0.37 63 1007.8
20260506135504 72 178 3.5 7.0 0.00 0.38 0.37 62 1007.8
20260506135404 72 163 2.6 7.0 0.00 0.38 0.37 61 1007.8
20260506135306 72 161 0.9 7.0 0.00 0.38 0.37 61 1007.8
20260506135105 72 146 2.6 7.0 0.00 0.38 0.37 63 1007.8
20260506135002 72 184 3.5 7.0 0.00 0.38 0.37 62 1007.8
20260506134859 72 160 3.5 8.7 0.00 0.38 0.37 60 1007.8
20260506134600 72 150 3.5 8.7 0.00 0.38 0.37 61 1007.9
20260506134526 72 138 7.0 8.7 0.00 0.38 0.37 61 1007.9
20260506134259 72 163 6.1 8.7 0.00 0.38 0.37 60 1007.9
20260506134004 72 188 7.0 9.6 0.00 0.38 0.37 60 1007.9
20260506133906 72 170 5.2 9.6 0.00 0.38 0.37 60 1007.9
20260506133801 72 187 7.0 9.6 0.00 0.38 0.37 61 1007.9
20260506133609 73 176 1.7 9.6 0.00 0.38 0.37 60 1007.9
20260506133516 73 176 4.3 9.6 0.00 0.38 0.37 58 1007.8
20260506133359 73 187 4.3 10.4 0.00 0.38 0.37 60 1007.9
20260506133303 73 179 6.1 10.4 0.00 0.38 0.37 62 1007.9
20260506133200 73 139 2.6 10.4 0.00 0.38 0.37 61 1007.9
20260506133100 73 169 7.8 10.4 0.00 0.38 0.37 60 1007.9
20260506133004 73 201 3.5 10.4 0.00 0.38 0.37 62 1007.9
20260506132859 73 194 4.3 10.4 0.00 0.38 0.37 63 1007.9
20260506132600 73 165 5.2 10.4 0.00 0.38 0.37 62 1008.0
20260506132500 73 135 4.3 10.4 0.00 0.38 0.37 63 1008.0
20260506132408 72 159 3.5 9.6 0.00 0.38 0.37 63 1008.0
20260506132300 72 185 3.5 9.6 0.00 0.38 0.37 62 1008.0
20260506132201 72 142 6.1 9.6 0.00 0.38 0.37 63 1008.0
20260506132103 72 162 4.3 9.6 0.00 0.38 0.37 62 1008.0
20260506132001 72 200 2.6 9.6 0.00 0.38 0.37 61 1008.0
20260506131901 73 161 7.0 9.6 0.00 0.38 0.37 63 1008.1
20260506131700 73 170 1.7 13.0 0.00 0.38 0.37 63 1008.0
20260506131600 73 226 2.6 13.0 0.00 0.38 0.37 64 1008.1
20260506131504 72 164 2.6 13.0 0.00 0.38 0.37 63 1008.1
20260506131400 72 176 4.3 13.0 0.00 0.38 0.37 62 1008.1
20260506131202 72 110 6.1 13.0 0.00 0.38 0.37 66 1008.1
20260506131059 72 162 5.2 13.0 0.00 0.38 0.37 64 1008.1
20260506131002 72 161 1.7 13.0 0.00 0.38 0.37 63 1008.2
20260506130905 72 163 2.6 13.0 0.00 0.38 0.37 61 1008.2
20260506130801 72 175 7.8 13.0 0.00 0.38 0.37 61 1008.2
20260506130700 73 184 13.0 13.0 0.00 0.38 0.37 61 1008.2
20260506130604 73 165 6.1 12.2 0.00 0.38 0.37 63 1008.2
20260506130501 73 157 7.0 12.2 0.00 0.38 0.37 63 1008.2
20260506130359 73 119 7.0 12.2 0.00 0.38 0.37 61 1008.2
20260506130303 73 123 4.3 12.2 0.00 0.38 0.37 63 1008.2
20260506130200 73 165 2.6 12.2 0.00 0.38 0.37 65 1008.1
20260506130006 73 128 8.7 12.2 0.00 0.38 0.37 66 1008.2
20260506125900 73 134 8.7 12.2 0.00 0.38 0.37 67 1008.2
20260506125759 72 161 8.7 12.2 0.00 0.38 0.37 66 1008.2
20260506125702 72 134 8.7 12.2 0.00 0.38 0.37 65 1008.2
20260506125600 72 153 4.3 10.4 0.00 0.38 0.37 66 1008.2
20260506125504 72 189 3.5 10.4 0.00 0.38 0.37 65 1008.2
20260506125402 72 175 3.5 13.0 0.00 0.38 0.37 64 1008.3
20260506125300 72 196 5.2 13.0 0.00 0.38 0.37 63 1008.3
20260506125159 72 170 7.0 13.0 0.00 0.38 0.37 63 1008.3
20260506125001 72 173 7.0 13.0 0.00 0.38 0.37 65 1008.3
20260506124859 72 161 2.6 13.0 0.00 0.38 0.37 69 1008.2
20260506124802 72 121 8.7 13.0 0.00 0.38 0.37 68 1008.2
20260506124700 71 152 5.2 13.0 0.00 0.38 0.37 66 1008.2
20260506124301 71 153 3.5 12.2 0.00 0.38 0.37 69 1008.3
20260506124203 70 154 7.0 12.2 0.00 0.38 0.37 67 1008.2
20260506124100 70 157 2.6 12.2 0.00 0.38 0.37 67 1008.3
20260506124001 70 157 5.2 12.2 0.00 0.38 0.37 68 1008.3
20260506123902 70 142 3.5 13.0 0.00 0.38 0.37 68 1008.3
20260506123800 70 133 8.7 13.0 0.00 0.38 0.37 69 1008.4
20260506123700 70 136 10.4 13.0 0.00 0.38 0.37 68 1008.3
20260506123605 70 159 6.1 13.0 0.00 0.38 0.37 67 1008.3
20260506123500 70 138 7.8 13.0 0.00 0.38 0.37 66 1008.3
20260506123302 70 155 5.2 13.0 0.00 0.38 0.37 67 1008.3
20260506123200 70 159 7.0 13.0 0.00 0.38 0.37 67 1008.3
20260506123059 70 147 7.0 13.0 0.00 0.38 0.37 68 1008.3
20260506123005 70 136 12.2 13.0 0.00 0.38 0.37 69 1008.3
20260506122900 70 129 9.6 12.2 0.00 0.38 0.37 69 1008.3
20260506122800 70 142 5.2 13.0 0.00 0.38 0.37 68 1008.3
20260506122703 70 163 3.5 13.0 0.00 0.38 0.37 68 1008.3
20260506122402 70 154 4.3 13.0 0.00 0.38 0.37 67 1008.3
20260506122306 70 138 7.8 13.0 0.00 0.38 0.37 67 1008.3
20260506122103 70 130 8.7 13.0 0.00 0.38 0.37 66 1008.3
20260506122002 70 136 9.6 13.0 0.00 0.38 0.37 66 1008.4
20260506121700 70 144 8.7 13.0 0.00 0.38 0.37 67 1008.3
20260506121611 70 163 6.1 13.0 0.00 0.38 0.37 66 1008.3
20260506121509 70 133 8.7 13.0 0.00 0.38 0.37 66 1008.3
20260506121203 70 144 4.3 10.4 0.00 0.38 0.37 67 1008.3
20260506121102 70 164 6.1 10.4 0.00 0.38 0.37 67 1008.4
20260506120902 70 165 2.6 10.4 0.00 0.38 0.37 66 1008.3
20260506120804 70 195 8.7 10.4 0.00 0.38 0.37 68 1008.3
20260506120700 70 187 7.8 8.7 0.00 0.38 0.37 67 1008.3
20260506120505 70 147 4.3 8.7 0.00 0.38 0.37 68 1008.4
20260506120400 70 158 4.3 8.7 0.00 0.38 0.37 67 1008.4
20260506120300 70 178 5.2 8.7 0.00 0.38 0.37 67 1008.4
20260506120204 70 182 7.8 8.7 0.00 0.38 0.37 69 1008.4
20260506120130 70 158 3.5 10.4 0.00 0.38 0.37 69 1008.5
20260506115904 70 136 4.3 10.4 0.00 0.39 0.37 69 1008.5
20260506115800 70 167 4.3 10.4 0.00 0.39 0.37 69 1008.5
20260506115700 70 165 2.6 10.4 0.00 0.39 0.37 69 1008.4
20260506115359 69 198 3.5 10.4 0.00 0.39 0.37 67 1008.5
20260506115306 69 167 3.5 10.4 0.00 0.39 0.37 68 1008.6